| time (UTC) | temp F | wind direction | speed knots | gust knots | rain 1hr in | rain 24hr in | rain mn in | humidity % | barometer mb |
| 20260507125140 | 63 | 49 | 6.1 | 12.2 | 0.00 | 0.00 | 0.00 | 88 | 1014.0 |
| 20260507125038 | 63 | 51 | 6.1 | 12.2 | 0.00 | 0.00 | 0.00 | 88 | 1013.9 |
| 20260507124939 | 63 | 3 | 7.0 | 12.2 | 0.00 | 0.00 | 0.00 | 88 | 1013.8 |
| 20260507124837 | 64 | 3 | 7.8 | 12.2 | 0.00 | 0.00 | 0.00 | 88 | 1013.7 |
| 20260507124735 | 64 | 0 | 7.0 | 11.3 | 0.00 | 0.00 | 0.00 | 89 | 1013.7 |
| 20260507124632 | 64 | 51 | 6.1 | 11.3 | 0.00 | 0.00 | 0.00 | 89 | 1013.6 |
| 20260507124532 | 64 | 49 | 4.3 | 9.6 | 0.00 | 0.00 | 0.00 | 89 | 1013.6 |
| 20260507124431 | 64 | 51 | 4.3 | 9.6 | 0.00 | 0.00 | 0.00 | 89 | 1013.5 |
| 20260507124332 | 64 | 49 | 4.3 | 9.6 | 0.00 | 0.00 | 0.00 | 89 | 1013.6 |
| 20260507124232 | 64 | 1 | 3.5 | 9.6 | 0.00 | 0.00 | 0.00 | 89 | 1013.5 |
| 20260507124131 | 64 | 51 | 4.3 | 9.6 | 0.00 | 0.00 | 0.00 | 89 | 1013.5 |
| 20260507124031 | 64 | 49 | 5.2 | 9.6 | 0.00 | 0.00 | 0.00 | 89 | 1013.6 |
| 20260507123931 | 64 | 47 | 5.2 | 10.4 | 0.00 | 0.00 | 0.00 | 89 | 1013.5 |
| 20260507123831 | 64 | 49 | 6.1 | 10.4 | 0.00 | 0.00 | 0.00 | 89 | 1013.5 |
| 20260507123731 | 64 | 51 | 6.1 | 10.4 | 0.00 | 0.00 | 0.00 | 89 | 1013.4 |
| 20260507123631 | 64 | 3 | 6.1 | 10.4 | 0.00 | 0.00 | 0.00 | 89 | 1013.5 |
| 20260507123532 | 64 | 0 | 5.2 | 10.4 | 0.00 | 0.00 | 0.00 | 89 | 1013.5 |
| 20260507123431 | 63 | 3 | 5.2 | 10.4 | 0.00 | 0.00 | 0.00 | 89 | 1013.5 |
| 20260507123326 | 64 | 0 | 5.2 | 10.4 | 0.00 | 0.00 | 0.00 | 89 | 1013.4 |
| 20260507123224 | 64 | 0 | 5.2 | 10.4 | 0.00 | 0.00 | 0.00 | 89 | 1013.5 |
| 20260507123122 | 64 | 0 | 5.2 | 10.4 | 0.00 | 0.00 | 0.00 | 89 | 1013.5 |
| 20260507123022 | 64 | 48 | 6.1 | 10.4 | 0.00 | 0.00 | 0.00 | 89 | 1013.6 |
| 20260507122918 | 64 | 48 | 6.1 | 9.6 | 0.00 | 0.00 | 0.00 | 89 | 1013.6 |
| 20260507122816 | 64 | 47 | 5.2 | 8.7 | 0.00 | 0.00 | 0.00 | 89 | 1013.6 |
| 20260507122716 | 64 | 44 | 4.3 | 8.7 | 0.00 | 0.00 | 0.00 | 89 | 1013.5 |
| 20260507122613 | 64 | 0 | 5.2 | 8.7 | 0.00 | 0.00 | 0.00 | 89 | 1013.4 |
| 20260507122511 | 64 | 48 | 5.2 | 8.7 | 0.00 | 0.00 | 0.00 | 89 | 1013.2 |
| 20260507122410 | 64 | 0 | 5.2 | 8.7 | 0.00 | 0.00 | 0.00 | 89 | 1013.2 |
| 20260507122309 | 64 | 0 | 4.3 | 8.7 | 0.00 | 0.00 | 0.00 | 89 | 1013.1 |
| 20260507122207 | 64 | 4 | 5.2 | 8.7 | 0.00 | 0.00 | 0.00 | 89 | 1013.1 |
| 20260507122107 | 64 | 3 | 7.0 | 8.7 | 0.00 | 0.00 | 0.00 | 89 | 1013.1 |
| 20260507122007 | 64 | 0 | 5.2 | 9.6 | 0.00 | 0.00 | 0.00 | 89 | 1013.1 |
| 20260507121907 | 64 | 4 | 4.3 | 11.3 | 0.00 | 0.00 | 0.00 | 89 | 1013.2 |
| 20260507121807 | 64 | 48 | 3.5 | 11.3 | 0.00 | 0.00 | 0.00 | 89 | 1013.2 |
| 20260507121706 | 64 | 0 | 3.5 | 11.3 | 0.00 | 0.00 | 0.00 | 89 | 1013.3 |
| 20260507121606 | 64 | 49 | 4.3 | 13.0 | 0.00 | 0.00 | 0.00 | 89 | 1013.3 |
| 20260507121507 | 64 | 48 | 4.3 | 13.0 | 0.00 | 0.00 | 0.00 | 89 | 1013.4 |
| 20260507121406 | 64 | 0 | 3.5 | 13.0 | 0.00 | 0.00 | 0.00 | 89 | 1013.4 |
| 20260507121308 | 64 | 0 | 3.5 | 13.0 | 0.00 | 0.00 | 0.00 | 89 | 1013.3 |
| 20260507121207 | 64 | 0 | 4.3 | 13.0 | 0.00 | 0.00 | 0.00 | 89 | 1013.3 |
| 20260507121106 | 64 | 49 | 6.1 | 13.0 | 0.00 | 0.00 | 0.00 | 89 | 1013.3 |
| 20260507121007 | 64 | 0 | 6.1 | 13.0 | 0.00 | 0.00 | 0.00 | 89 | 1013.1 |
| 20260507120908 | 64 | 1 | 7.0 | 13.0 | 0.00 | 0.00 | 0.00 | 89 | 1013.1 |
| 20260507120808 | 64 | 0 | 7.8 | 13.0 | 0.00 | 0.00 | 0.00 | 89 | 1013.0 |
| 20260507120707 | 64 | 49 | 6.1 | 13.0 | 0.00 | 0.00 | 0.00 | 89 | 1013.0 |
| 20260507120607 | 64 | 7 | 5.2 | 11.3 | 0.00 | 0.00 | 0.00 | 89 | 1013.0 |
| 20260507120508 | 64 | 6 | 6.1 | 11.3 | 0.00 | 0.00 | 0.00 | 89 | 1013.0 |
| 20260507120406 | 65 | 3 | 6.1 | 11.3 | 0.00 | 0.00 | 0.00 | 89 | 1013.0 |
| 20260507120307 | 65 | 51 | 5.2 | 11.3 | 0.00 | 0.00 | 0.00 | 89 | 1013.1 |
| 20260507120207 | 65 | 10 | 5.2 | 11.3 | 0.00 | 0.00 | 0.00 | 89 | 1013.1 |
| 20260507120108 | 65 | 3 | 4.3 | 11.3 | 0.00 | 0.00 | 0.00 | 89 | 1013.1 |
| 20260507120006 | 65 | 49 | 3.5 | 11.3 | 0.00 | 0.00 | 0.00 | 89 | 1013.1 |
| 20260507115906 | 65 | 48 | 4.3 | 11.3 | 0.00 | 0.00 | 0.00 | 89 | 1013.1 |
| 20260507115808 | 65 | 48 | 6.1 | 11.3 | 0.00 | 0.00 | 0.00 | 89 | 1013.0 |
| 20260507115707 | 65 | 48 | 6.1 | 11.3 | 0.00 | 0.00 | 0.00 | 89 | 1013.1 |
| 20260507115606 | 65 | 51 | 6.1 | 10.4 | 0.00 | 0.00 | 0.00 | 89 | 1013.1 |
| 20260507115506 | 65 | 49 | 5.2 | 10.4 | 0.00 | 0.00 | 0.00 | 89 | 1013.0 |
| 20260507115407 | 65 | 48 | 4.3 | 10.4 | 0.00 | 0.00 | 0.00 | 89 | 1012.9 |
| 20260507115307 | 65 | 0 | 4.3 | 10.4 | 0.00 | 0.00 | 0.00 | 89 | 1012.9 |
| 20260507115206 | 65 | 1 | 4.3 | 10.4 | 0.00 | 0.00 | 0.00 | 89 | 1012.8 |
| 20260507115107 | 65 | 48 | 4.3 | 10.4 | 0.00 | 0.00 | 0.00 | 89 | 1012.8 |
| 20260507115005 | 65 | 0 | 5.2 | 10.4 | 0.00 | 0.00 | 0.00 | 89 | 1012.8 |
| 20260507114906 | 65 | 0 | 6.1 | 10.4 | 0.00 | 0.00 | 0.00 | 89 | 1012.7 |
| 20260507114808 | 65 | 48 | 5.2 | 10.4 | 0.00 | 0.00 | 0.00 | 89 | 1012.7 |
| 20260507114706 | 65 | 1 | 3.5 | 11.3 | 0.00 | 0.00 | 0.00 | 89 | 1012.7 |
| 20260507114606 | 65 | 51 | 3.5 | 11.3 | 0.00 | 0.00 | 0.00 | 89 | 1012.7 |
| 20260507114505 | 65 | 0 | 3.5 | 11.3 | 0.00 | 0.00 | 0.00 | 89 | 1012.5 |
| 20260507114408 | 65 | 0 | 5.2 | 11.3 | 0.00 | 0.00 | 0.00 | 89 | 1012.5 |
| 20260507114306 | 65 | 1 | 5.2 | 11.3 | 0.00 | 0.00 | 0.00 | 89 | 1012.4 |
| 20260507114205 | 65 | 3 | 5.2 | 11.3 | 0.00 | 0.00 | 0.00 | 89 | 1012.5 |
| 20260507114107 | 65 | 1 | 4.3 | 11.3 | 0.00 | 0.00 | 0.00 | 89 | 1012.5 |
| 20260507114007 | 65 | 49 | 5.2 | 11.3 | 0.00 | 0.00 | 0.00 | 89 | 1012.6 |
| 20260507113905 | 65 | 52 | 6.1 | 11.3 | 0.00 | 0.00 | 0.00 | 89 | 1012.6 |
| 20260507113805 | 65 | 1 | 7.0 | 11.3 | 0.00 | 0.00 | 0.00 | 89 | 1012.4 |
| 20260507113706 | 65 | 4 | 5.2 | 8.7 | 0.00 | 0.00 | 0.00 | 89 | 1012.4 |
| 20260507113605 | 65 | 3 | 4.3 | 8.7 | 0.00 | 0.00 | 0.00 | 89 | 1012.3 |
| 20260507113505 | 65 | 0 | 4.3 | 9.6 | 0.00 | 0.00 | 0.00 | 89 | 1012.3 |
| 20260507113405 | 65 | 1 | 4.3 | 9.6 | 0.00 | 0.00 | 0.00 | 89 | 1012.3 |
| 20260507113306 | 65 | 0 | 3.5 | 9.6 | 0.00 | 0.00 | 0.00 | 89 | 1012.4 |
| 20260507113205 | 65 | 0 | 2.6 | 9.6 | 0.00 | 0.00 | 0.00 | 89 | 1012.4 |
| 20260507113105 | 65 | 4 | 3.5 | 9.6 | 0.00 | 0.00 | 0.00 | 89 | 1012.3 |
| 20260507113006 | 65 | 3 | 5.2 | 9.6 | 0.00 | 0.00 | 0.00 | 89 | 1012.4 |
| 20260507112905 | 65 | 1 | 5.2 | 9.6 | 0.00 | 0.00 | 0.00 | 89 | 1012.4 |
| 20260507112806 | 65 | 1 | 4.3 | 9.6 | 0.00 | 0.00 | 0.00 | 89 | 1012.4 |
| 20260507112705 | 65 | 51 | 5.2 | 9.6 | 0.00 | 0.00 | 0.00 | 89 | 1012.4 |
| 20260507112605 | 65 | 0 | 6.1 | 9.6 | 0.00 | 0.00 | 0.00 | 89 | 1012.4 |
| 20260507112505 | 65 | 3 | 5.2 | 9.6 | 0.00 | 0.00 | 0.00 | 89 | 1012.3 |
| 20260507112405 | 65 | 47 | 4.3 | 8.7 | 0.00 | 0.00 | 0.00 | 89 | 1012.2 |
| 20260507112308 | 65 | 4 | 4.3 | 7.8 | 0.00 | 0.00 | 0.00 | 90 | 1012.2 |
| 20260507112206 | 65 | 0 | 4.3 | 7.8 | 0.00 | 0.00 | 0.00 | 90 | 1012.1 |
| 20260507112106 | 65 | 0 | 3.5 | 7.8 | 0.00 | 0.00 | 0.00 | 90 | 1012.0 |
| 20260507112006 | 65 | 51 | 3.5 | 7.8 | 0.00 | 0.00 | 0.00 | 90 | 1012.1 |
| 20260507111905 | 65 | 0 | 3.5 | 7.8 | 0.00 | 0.00 | 0.00 | 90 | 1012.1 |
| 20260507111805 | 65 | 0 | 3.5 | 7.8 | 0.00 | 0.00 | 0.00 | 90 | 1012.2 |
| 20260507111705 | 65 | 0 | 3.5 | 7.8 | 0.00 | 0.00 | 0.00 | 90 | 1012.2 |
| 20260507111606 | 65 | 0 | 3.5 | 7.8 | 0.00 | 0.00 | 0.00 | 90 | 1012.2 |
| 20260507111506 | 65 | 0 | 3.5 | 7.8 | 0.00 | 0.00 | 0.00 | 90 | 1012.2 |
| 20260507111405 | 65 | 1 | 4.3 | 7.8 | 0.00 | 0.00 | 0.00 | 90 | 1012.1 |
| 20260507111306 | 65 | 1 | 4.3 | 7.8 | 0.00 | 0.00 | 0.00 | 90 | 1012.1 |
| 20260507111205 | 65 | 3 | 3.5 | 7.8 | 0.00 | 0.00 | 0.00 | 90 | 1012.0 |
| 20260507111105 | 65 | 0 | 3.5 | 6.1 | 0.00 | 0.00 | 0.00 | 90 | 1012.0 |
| 20260507111004 | 66 | 3 | 4.3 | 6.1 | 0.00 | 0.00 | 0.00 | 90 | 1011.9 |
| 20260507110906 | 66 | 4 | 3.5 | 6.1 | 0.00 | 0.00 | 0.00 | 90 | 1011.8 |
| 20260507110805 | 66 | 3 | 2.6 | 4.3 | 0.00 | 0.00 | 0.00 | 90 | 1011.8 |
| 20260507110705 | 66 | 6 | 2.6 | 4.3 | 0.00 | 0.00 | 0.00 | 90 | 1011.9 |
| 20260507110606 | 66 | 49 | 2.6 | 4.3 | 0.00 | 0.00 | 0.00 | 90 | 1011.9 |
| 20260507110504 | 66 | 4 | 3.5 | 4.3 | 0.00 | 0.00 | 0.00 | 90 | 1011.9 |
| 20260507110406 | 66 | 3 | 2.6 | 4.3 | 0.00 | 0.00 | 0.00 | 90 | 1012.0 |
| 20260507110306 | 66 | 0 | 1.7 | 4.3 | 0.00 | 0.00 | 0.00 | 90 | 1012.0 |
| 20260507110207 | 66 | 52 | 1.7 | 4.3 | 0.00 | 0.00 | 0.00 | 90 | 1012.0 |
| 20260507110105 | 66 | 0 | 1.7 | 4.3 | 0.00 | 0.00 | 0.00 | 90 | 1011.9 |
| 20260507110005 | 66 | 3 | 2.6 | 4.3 | 0.00 | 0.00 | 0.00 | 90 | 1011.9 |
| 20260507105905 | 66 | 1 | 2.6 | 4.3 | 0.00 | 0.00 | 0.00 | 90 | 1011.9 |
| 20260507105805 | 66 | 1 | 2.6 | 4.3 | 0.00 | 0.00 | 0.00 | 90 | 1011.9 |
| 20260507105705 | 66 | 1 | 2.6 | 4.3 | 0.00 | 0.00 | 0.00 | 90 | 1011.9 |
| 20260507105607 | 66 | 1 | 2.6 | 4.3 | 0.00 | 0.00 | 0.00 | 90 | 1012.0 |
| 20260507105506 | 66 | 4 | 2.6 | 4.3 | 0.00 | 0.00 | 0.00 | 90 | 1011.9 |
| 20260507105405 | 66 | 6 | 1.7 | 4.3 | 0.00 | 0.00 | 0.00 | 90 | 1012.0 |
| 20260507105306 | 66 | 3 | 0.9 | 4.3 | 0.00 | 0.00 | 0.00 | 90 | 1011.9 |
| 20260507105205 | 66 | 3 | 1.7 | 4.3 | 0.00 | 0.00 | 0.00 | 90 | 1012.0 |
| 20260507105104 | 66 | 3 | 1.7 | 4.3 | 0.00 | 0.00 | 0.00 | 90 | 1012.0 |
| 20260507105005 | 66 | 3 | 2.6 | 4.3 | 0.00 | 0.00 | 0.00 | 90 | 1011.9 |
| 20260507104905 | 66 | 3 | 2.6 | 5.2 | 0.00 | 0.00 | 0.00 | 90 | 1011.8 |
| 20260507104805 | 66 | 3 | 1.7 | 6.1 | 0.00 | 0.00 | 0.00 | 90 | 1011.8 |
| 20260507104704 | 66 | 4 | 2.6 | 6.1 | 0.00 | 0.00 | 0.00 | 90 | 1011.8 |
| 20260507104605 | 66 | 4 | 2.6 | 6.1 | 0.00 | 0.00 | 0.00 | 90 | 1011.9 |
| 20260507104506 | 66 | 0 | 1.7 | 6.1 | 0.00 | 0.00 | 0.00 | 90 | 1011.9 |
| 20260507104405 | 66 | 0 | 2.6 | 6.1 | 0.00 | 0.00 | 0.00 | 90 | 1012.0 |
| 20260507104306 | 66 | 6 | 3.5 | 6.1 | 0.00 | 0.00 | 0.00 | 90 | 1012.0 |
| 20260507104205 | 66 | 1 | 2.6 | 7.8 | 0.00 | 0.00 | 0.00 | 90 | 1012.0 |
| 20260507104105 | 66 | 51 | 2.6 | 7.8 | 0.00 | 0.00 | 0.00 | 90 | 1012.0 |
| 20260507104005 | 66 | 3 | 3.5 | 7.8 | 0.00 | 0.00 | 0.00 | 90 | 1011.8 |
| 20260507103904 | 66 | 1 | 4.3 | 7.8 | 0.00 | 0.00 | 0.00 | 90 | 1011.8 |
| 20260507103805 | 66 | 0 | 3.5 | 7.8 | 0.00 | 0.00 | 0.00 | 90 | 1011.7 |
| 20260507103704 | 66 | 0 | 3.5 | 7.8 | 0.00 | 0.00 | 0.00 | 90 | 1011.7 |
| 20260507103604 | 66 | 0 | 2.6 | 7.8 | 0.00 | 0.00 | 0.00 | 90 | 1011.6 |
| 20260507103505 | 66 | 1 | 2.6 | 7.8 | 0.00 | 0.00 | 0.00 | 90 | 1011.6 |
| 20260507103404 | 66 | 1 | 3.5 | 7.8 | 0.00 | 0.00 | 0.00 | 90 | 1011.6 |
| 20260507103305 | 66 | 1 | 4.3 | 7.8 | 0.00 | 0.00 | 0.00 | 90 | 1011.7 |
| 20260507103205 | 66 | 0 | 4.3 | 6.1 | 0.00 | 0.00 | 0.00 | 90 | 1011.8 |
| 20260507103105 | 66 | 49 | 3.5 | 6.1 | 0.00 | 0.00 | 0.00 | 90 | 1011.7 |
| 20260507103004 | 66 | 0 | 3.5 | 6.1 | 0.00 | 0.00 | 0.00 | 90 | 1011.7 |
| 20260507102904 | 66 | 0 | 3.5 | 6.1 | 0.00 | 0.00 | 0.00 | 90 | 1011.7 |
| 20260507102805 | 66 | 51 | 1.7 | 6.1 | 0.00 | 0.00 | 0.00 | 90 | 1011.8 |
| 20260507102704 | 66 | 51 | 1.7 | 6.1 | 0.00 | 0.00 | 0.00 | 90 | 1011.8 |
| 20260507102604 | 66 | 0 | 3.5 | 6.1 | 0.00 | 0.00 | 0.00 | 90 | 1011.7 |
| 20260507102504 | 66 | 51 | 2.6 | 6.1 | 0.00 | 0.00 | 0.00 | 90 | 1011.6 |
| 20260507102404 | 66 | 0 | 2.6 | 7.8 | 0.00 | 0.00 | 0.00 | 90 | 1011.5 |
| 20260507102306 | 66 | 0 | 3.5 | 7.8 | 0.00 | 0.00 | 0.00 | 90 | 1011.5 |
| 20260507102203 | 66 | 4 | 3.5 | 8.7 | 0.00 | 0.00 | 0.00 | 90 | 1011.4 |
| 20260507102105 | 66 | 1 | 3.5 | 8.7 | 0.00 | 0.00 | 0.00 | 90 | 1011.5 |
| 20260507102007 | 66 | 4 | 3.5 | 8.7 | 0.00 | 0.00 | 0.00 | 90 | 1011.5 |
| 20260507101904 | 66 | 4 | 3.5 | 8.7 | 0.00 | 0.00 | 0.00 | 90 | 1011.6 |
| 20260507101805 | 66 | 0 | 3.5 | 8.7 | 0.00 | 0.00 | 0.00 | 90 | 1011.7 |
| 20260507101706 | 66 | 1 | 3.5 | 8.7 | 0.00 | 0.00 | 0.00 | 90 | 1011.7 |
| 20260507101604 | 66 | 0 | 4.3 | 8.7 | 0.00 | 0.00 | 0.00 | 90 | 1011.7 |
| 20260507101503 | 66 | 0 | 4.3 | 8.7 | 0.00 | 0.00 | 0.00 | 90 | 1011.7 |
| 20260507101404 | 66 | 0 | 4.3 | 8.7 | 0.00 | 0.00 | 0.00 | 90 | 1011.7 |
| 20260507101304 | 66 | 0 | 4.3 | 8.7 | 0.00 | 0.00 | 0.00 | 90 | 1011.7 |
| 20260507101206 | 66 | 0 | 3.5 | 7.8 | 0.00 | 0.00 | 0.00 | 90 | 1011.6 |
| 20260507101106 | 66 | 3 | 2.6 | 8.7 | 0.00 | 0.00 | 0.00 | 90 | 1011.7 |
| 20260507101005 | 66 | 0 | 2.6 | 8.7 | 0.00 | 0.00 | 0.00 | 90 | 1011.6 |
| 20260507100904 | 66 | 51 | 2.6 | 8.7 | 0.00 | 0.00 | 0.00 | 90 | 1011.6 |
| 20260507100804 | 66 | 51 | 2.6 | 8.7 | 0.00 | 0.00 | 0.00 | 90 | 1011.7 |
| 20260507100704 | 66 | 0 | 3.5 | 8.7 | 0.00 | 0.00 | 0.00 | 90 | 1011.7 |
| 20260507100603 | 66 | 1 | 4.3 | 9.6 | 0.00 | 0.00 | 0.00 | 90 | 1011.7 |
| 20260507100503 | 66 | 48 | 3.5 | 12.2 | 0.00 | 0.00 | 0.00 | 90 | 1011.6 |
| 20260507100403 | 66 | 0 | 3.5 | 12.2 | 0.00 | 0.00 | 0.00 | 90 | 1011.5 |
| 20260507100303 | 66 | 0 | 4.3 | 12.2 | 0.00 | 0.00 | 0.00 | 90 | 1011.5 |
| 20260507100203 | 66 | 0 | 4.3 | 12.2 | 0.00 | 0.00 | 0.00 | 90 | 1011.5 |
| 20260507100103 | 66 | 48 | 4.3 | 12.2 | 0.00 | 0.00 | 0.00 | 90 | 1011.5 |
| 20260507100004 | 66 | 0 | 4.3 | 12.2 | 0.00 | 0.00 | 0.00 | 90 | 1011.4 |
| 20260507095903 | 66 | 0 | 4.3 | 12.2 | 0.00 | 0.00 | 0.00 | 90 | 1011.4 |
| 20260507095803 | 66 | 0 | 5.2 | 12.2 | 0.00 | 0.00 | 0.00 | 90 | 1011.4 |
| 20260507095703 | 66 | 0 | 7.0 | 12.2 | 0.00 | 0.00 | 0.00 | 90 | 1011.5 |
| 20260507095603 | 66 | 7 | 7.0 | 12.2 | 0.00 | 0.00 | 0.00 | 90 | 1011.4 |
| 20260507095503 | 66 | 7 | 5.2 | 11.3 | 0.00 | 0.00 | 0.00 | 90 | 1011.4 |
| 20260507095403 | 66 | 0 | 4.3 | 8.7 | 0.00 | 0.00 | 0.00 | 90 | 1011.3 |
| 20260507095306 | 66 | 7 | 3.5 | 8.7 | 0.00 | 0.00 | 0.00 | 90 | 1011.4 |
| 20260507095203 | 66 | 1 | 4.3 | 8.7 | 0.00 | 0.00 | 0.00 | 90 | 1011.4 |
| 20260507095104 | 66 | 6 | 3.5 | 8.7 | 0.00 | 0.00 | 0.00 | 90 | 1011.3 |
| 20260507095004 | 66 | 6 | 3.5 | 8.7 | 0.00 | 0.00 | 0.00 | 90 | 1011.3 |
| 20260507094903 | 66 | 8 | 3.5 | 10.4 | 0.00 | 0.00 | 0.00 | 90 | 1011.3 |
| 20260507094803 | 66 | 3 | 2.6 | 10.4 | 0.00 | 0.00 | 0.00 | 90 | 1011.3 |
| 20260507094703 | 66 | 0 | 2.6 | 10.4 | 0.00 | 0.00 | 0.00 | 90 | 1011.3 |
| 20260507094604 | 66 | 0 | 3.5 | 10.4 | 0.00 | 0.00 | 0.00 | 90 | 1011.3 |
| 20260507094505 | 66 | 1 | 5.2 | 10.4 | 0.00 | 0.00 | 0.00 | 90 | 1011.2 |
| 20260507094403 | 66 | 1 | 5.2 | 10.4 | 0.00 | 0.00 | 0.00 | 90 | 1011.1 |
| 20260507094304 | 66 | 1 | 4.3 | 10.4 | 0.00 | 0.00 | 0.00 | 90 | 1011.0 |
| 20260507094203 | 66 | 7 | 4.3 | 10.4 | 0.00 | 0.00 | 0.00 | 90 | 1011.0 |
| 20260507094103 | 66 | 0 | 6.1 | 10.4 | 0.00 | 0.00 | 0.00 | 90 | 1010.9 |
| 20260507094001 | 66 | 6 | 5.2 | 10.4 | 0.00 | 0.00 | 0.00 | 90 | 1011.0 |
| 20260507093901 | 66 | 1 | 4.3 | 9.6 | 0.00 | 0.00 | 0.00 | 90 | 1011.0 |
| 20260507093758 | 66 | 4 | 5.2 | 9.6 | 0.00 | 0.00 | 0.00 | 90 | 1011.0 |
| 20260507093657 | 66 | 3 | 5.2 | 9.6 | 0.00 | 0.00 | 0.00 | 90 | 1011.0 |
| 20260507093556 | 66 | 8 | 4.3 | 9.6 | 0.00 | 0.00 | 0.00 | 90 | 1011.1 |
| 20260507093455 | 66 | 7 | 4.3 | 9.6 | 0.00 | 0.00 | 0.00 | 90 | 1011.1 |
| 20260507093352 | 66 | 4 | 4.3 | 9.6 | 0.00 | 0.00 | 0.00 | 90 | 1011.1 |
| 20260507093251 | 66 | 7 | 5.2 | 9.6 | 0.00 | 0.00 | 0.00 | 89 | 1011.1 |
| 20260507093149 | 66 | 3 | 6.1 | 9.6 | 0.00 | 0.00 | 0.00 | 89 | 1011.0 |
| 20260507093048 | 66 | 6 | 4.3 | 9.6 | 0.00 | 0.00 | 0.00 | 89 | 1010.9 |
| 20260507092946 | 66 | 3 | 4.3 | 9.6 | 0.00 | 0.00 | 0.00 | 89 | 1011.1 |
| 20260507092846 | 66 | 4 | 5.2 | 9.6 | 0.00 | 0.00 | 0.00 | 89 | 1011.1 |
| 20260507092743 | 66 | 7 | 6.1 | 9.6 | 0.00 | 0.00 | 0.00 | 89 | 1011.1 |
| 20260507092642 | 66 | 3 | 5.2 | 9.6 | 0.00 | 0.00 | 0.00 | 89 | 1011.1 |
| 20260507092542 | 66 | 3 | 4.3 | 9.6 | 0.00 | 0.00 | 0.00 | 89 | 1011.1 |
| 20260507092439 | 66 | 1 | 3.5 | 9.6 | 0.00 | 0.00 | 0.00 | 89 | 1011.2 |
| 20260507092336 | 66 | 47 | 4.3 | 9.6 | 0.00 | 0.00 | 0.00 | 89 | 1011.2 |
| 20260507092235 | 66 | 3 | 5.2 | 9.6 | 0.00 | 0.00 | 0.00 | 89 | 1011.2 |
| 20260507092133 | 66 | 48 | 4.3 | 9.6 | 0.00 | 0.00 | 0.00 | 89 | 1011.3 |
| 20260507092032 | 66 | 0 | 3.5 | 9.6 | 0.00 | 0.00 | 0.00 | 89 | 1011.3 |
| 20260507091930 | 66 | 0 | 4.3 | 9.6 | 0.00 | 0.00 | 0.00 | 89 | 1011.2 |
| 20260507091829 | 66 | 3 | 4.3 | 9.6 | 0.00 | 0.00 | 0.00 | 89 | 1011.1 |
| 20260507091727 | 66 | 4 | 4.3 | 9.6 | 0.00 | 0.00 | 0.00 | 89 | 1011.1 |
| 20260507091626 | 66 | 1 | 6.1 | 12.2 | 0.00 | 0.00 | 0.00 | 89 | 1011.0 |
| 20260507091523 | 66 | 0 | 6.1 | 12.2 | 0.00 | 0.00 | 0.00 | 89 | 1011.1 |
| 20260507091422 | 66 | 3 | 5.2 | 12.2 | 0.00 | 0.00 | 0.00 | 89 | 1011.0 |
| 20260507091321 | 66 | 49 | 5.2 | 12.2 | 0.00 | 0.00 | 0.00 | 89 | 1011.1 |
| 20260507091220 | 66 | 1 | 5.2 | 12.2 | 0.00 | 0.00 | 0.00 | 89 | 1011.0 |
| 20260507091117 | 66 | 1 | 4.3 | 12.2 | 0.00 | 0.00 | 0.00 | 89 | 1011.1 |
| 20260507091018 | 66 | 48 | 5.2 | 12.2 | 0.00 | 0.00 | 0.00 | 89 | 1011.2 |
| 20260507090915 | 66 | 47 | 5.2 | 12.2 | 0.00 | 0.00 | 0.00 | 89 | 1011.2 |
| 20260507090815 | 66 | 1 | 6.1 | 12.2 | 0.00 | 0.00 | 0.00 | 89 | 1011.3 |
| 20260507090712 | 67 | 1 | 6.1 | 12.2 | 0.00 | 0.00 | 0.00 | 89 | 1011.2 |
| 20260507090610 | 67 | 49 | 5.2 | 10.4 | 0.00 | 0.00 | 0.00 | 89 | 1011.2 |
| 20260507090505 | 67 | 48 | 5.2 | 10.4 | 0.00 | 0.00 | 0.00 | 89 | 1011.3 |
| 20260507090404 | 67 | 0 | 4.3 | 10.4 | 0.00 | 0.00 | 0.00 | 89 | 1011.3 |
| 20260507090303 | 67 | 49 | 5.2 | 10.4 | 0.00 | 0.00 | 0.00 | 89 | 1011.4 |
| 20260507090203 | 67 | 0 | 5.2 | 10.4 | 0.00 | 0.00 | 0.00 | 89 | 1011.3 |
| 20260507090105 | 67 | 4 | 4.3 | 7.8 | 0.00 | 0.00 | 0.00 | 88 | 1011.3 |
| 20260507090004 | 67 | 48 | 4.3 | 6.1 | 0.00 | 0.00 | 0.00 | 88 | 1011.2 |
| 20260507085903 | 67 | 3 | 4.3 | 8.7 | 0.00 | 0.00 | 0.00 | 88 | 1011.2 |
| 20260507085803 | 67 | 48 | 3.5 | 8.7 | 0.00 | 0.00 | 0.00 | 89 | 1011.2 |
| 20260507085702 | 67 | 1 | 4.3 | 11.3 | 0.00 | 0.00 | 0.00 | 88 | 1011.2 |
| 20260507085602 | 67 | 48 | 5.2 | 11.3 | 0.00 | 0.00 | 0.00 | 88 | 1011.2 |
| 20260507085503 | 67 | 1 | 5.2 | 11.3 | 0.00 | 0.00 | 0.00 | 88 | 1011.3 |
| 20260507085404 | 67 | 47 | 4.3 | 11.3 | 0.00 | 0.00 | 0.00 | 88 | 1011.4 |
| 20260507085306 | 67 | 49 | 6.1 | 11.3 | 0.00 | 0.00 | 0.00 | 88 | 1011.5 |
| 20260507085202 | 67 | 49 | 6.1 | 11.3 | 0.00 | 0.00 | 0.00 | 88 | 1011.5 |
| 20260507085032 | 67 | 49 | 6.1 | 11.3 | 0.00 | 0.00 | 0.00 | 88 | 1011.3 |
| 20260507084932 | 67 | 49 | 6.1 | 11.3 | 0.00 | 0.00 | 0.00 | 88 | 1011.3 |
| 20260507084830 | 67 | 49 | 7.0 | 11.3 | 0.00 | 0.00 | 0.00 | 88 | 1011.2 |
| 20260507084728 | 67 | 4 | 7.0 | 12.2 | 0.00 | 0.00 | 0.00 | 88 | 1011.2 |
| 20260507084627 | 67 | 51 | 7.0 | 12.2 | 0.00 | 0.00 | 0.00 | 88 | 1011.2 |
| 20260507084525 | 67 | 4 | 6.1 | 13.9 | 0.00 | 0.00 | 0.00 | 88 | 1011.3 |
| 20260507084424 | 67 | 0 | 5.2 | 13.9 | 0.00 | 0.00 | 0.00 | 88 | 1011.3 |
| 20260507084322 | 67 | 49 | 5.2 | 13.9 | 0.00 | 0.00 | 0.00 | 88 | 1011.4 |
| 20260507084220 | 67 | 0 | 6.1 | 13.9 | 0.00 | 0.00 | 0.00 | 88 | 1011.4 |
| 20260507084119 | 67 | 0 | 6.1 | 13.9 | 0.00 | 0.00 | 0.00 | 88 | 1011.3 |
| 20260507084018 | 67 | 6 | 6.1 | 13.9 | 0.00 | 0.00 | 0.00 | 88 | 1011.3 |
| 20260507083916 | 67 | 0 | 7.0 | 13.9 | 0.00 | 0.00 | 0.00 | 88 | 1011.3 |
| 20260507083814 | 67 | 0 | 7.8 | 13.9 | 0.00 | 0.00 | 0.00 | 88 | 1011.3 |
| 20260507083713 | 67 | 0 | 8.7 | 13.9 | 0.00 | 0.00 | 0.00 | 88 | 1011.3 |
| 20260507083612 | 67 | 0 | 7.8 | 12.2 | 0.00 | 0.00 | 0.00 | 88 | 1011.3 |
| 20260507083507 | 67 | 1 | 5.2 | 12.2 | 0.00 | 0.00 | 0.00 | 88 | 1011.2 |
| 20260507083408 | 67 | 1 | 5.2 | 12.2 | 0.00 | 0.00 | 0.00 | 88 | 1011.2 |
| 20260507083308 | 67 | 0 | 7.0 | 12.2 | 0.00 | 0.00 | 0.00 | 88 | 1011.1 |
| 20260507083205 | 67 | 0 | 7.0 | 12.2 | 0.00 | 0.00 | 0.00 | 88 | 1011.0 |
| 20260507083103 | 67 | 4 | 7.0 | 12.2 | 0.00 | 0.00 | 0.00 | 88 | 1011.0 |
| 20260507083004 | 67 | 0 | 7.8 | 12.2 | 0.00 | 0.00 | 0.00 | 88 | 1011.0 |
| 20260507082902 | 67 | 1 | 7.0 | 12.2 | 0.00 | 0.00 | 0.00 | 88 | 1011.0 |
| 20260507082804 | 67 | 1 | 5.2 | 12.2 | 0.00 | 0.00 | 0.00 | 88 | 1011.0 |
| 20260507082703 | 67 | 4 | 4.3 | 9.6 | 0.00 | 0.00 | 0.00 | 88 | 1011.0 |
| 20260507082602 | 67 | 6 | 4.3 | 9.6 | 0.00 | 0.00 | 0.00 | 88 | 1011.2 |
| 20260507082503 | 67 | 0 | 5.2 | 9.6 | 0.00 | 0.00 | 0.00 | 88 | 1011.2 |
| 20260507082402 | 67 | 1 | 5.2 | 9.6 | 0.00 | 0.00 | 0.00 | 88 | 1011.2 |
| 20260507082306 | 67 | 0 | 6.1 | 10.4 | 0.00 | 0.00 | 0.00 | 88 | 1011.2 |
| 20260507082204 | 67 | 1 | 6.1 | 10.4 | 0.00 | 0.00 | 0.00 | 88 | 1011.3 |
| 20260507082103 | 67 | 1 | 5.2 | 10.4 | 0.00 | 0.00 | 0.00 | 88 | 1011.2 |
| 20260507082003 | 67 | 0 | 5.2 | 10.4 | 0.00 | 0.00 | 0.00 | 88 | 1011.3 |
| 20260507081902 | 67 | 4 | 5.2 | 10.4 | 0.00 | 0.00 | 0.00 | 88 | 1011.2 |
| 20260507081802 | 67 | 0 | 4.3 | 10.4 | 0.00 | 0.00 | 0.00 | 88 | 1011.1 |
| 20260507081703 | 67 | 1 | 4.3 | 10.4 | 0.00 | 0.00 | 0.00 | 87 | 1011.0 |
| 20260507081603 | 67 | 0 | 6.1 | 10.4 | 0.00 | 0.00 | 0.00 | 87 | 1011.0 |
| 20260507081504 | 67 | 0 | 6.1 | 10.4 | 0.00 | 0.00 | 0.00 | 87 | 1010.9 |
| 20260507081402 | 67 | 0 | 6.1 | 10.4 | 0.00 | 0.00 | 0.00 | 87 | 1011.0 |
| 20260507081302 | 67 | 0 | 4.3 | 9.6 | 0.00 | 0.00 | 0.00 | 87 | 1010.9 |
| 20260507081202 | 67 | 48 | 4.3 | 9.6 | 0.00 | 0.00 | 0.00 | 87 | 1011.0 |
| 20260507081102 | 67 | 3 | 5.2 | 9.6 | 0.00 | 0.00 | 0.00 | 87 | 1010.9 |
| 20260507081003 | 67 | 1 | 4.3 | 9.6 | 0.00 | 0.00 | 0.00 | 87 | 1011.0 |
| 20260507080903 | 67 | 0 | 5.2 | 9.6 | 0.00 | 0.00 | 0.00 | 87 | 1011.0 |
| 20260507080801 | 67 | 3 | 6.1 | 9.6 | 0.00 | 0.00 | 0.00 | 87 | 1011.0 |
| 20260507080702 | 67 | 0 | 6.1 | 9.6 | 0.00 | 0.00 | 0.00 | 87 | 1010.9 |
| 20260507080602 | 67 | 1 | 5.2 | 9.6 | 0.00 | 0.00 | 0.00 | 87 | 1011.0 |
| 20260507080502 | 67 | 0 | 4.3 | 9.6 | 0.00 | 0.00 | 0.00 | 87 | 1011.1 |
| 20260507080402 | 67 | 4 | 4.3 | 9.6 | 0.00 | 0.00 | 0.00 | 87 | 1011.0 |
| 20260507080303 | 68 | 0 | 4.3 | 9.6 | 0.00 | 0.00 | 0.00 | 87 | 1011.0 |
| 20260507080203 | 67 | 1 | 3.5 | 9.6 | 0.00 | 0.00 | 0.00 | 87 | 1011.0 |
| 20260507080103 | 68 | 0 | 3.5 | 9.6 | 0.00 | 0.00 | 0.00 | 87 | 1011.0 |
| 20260507080003 | 68 | 0 | 3.5 | 9.6 | 0.00 | 0.00 | 0.00 | 87 | 1011.0 |
| 20260507075902 | 68 | 0 | 3.5 | 9.6 | 0.00 | 0.00 | 0.00 | 87 | 1011.0 |
| 20260507075802 | 68 | 0 | 4.3 | 9.6 | 0.00 | 0.00 | 0.00 | 87 | 1011.0 |
| 20260507075702 | 68 | 0 | 5.2 | 9.6 | 0.00 | 0.00 | 0.00 | 87 | 1011.0 |
| 20260507075601 | 68 | 0 | 5.2 | 9.6 | 0.00 | 0.00 | 0.00 | 87 | 1011.1 |
| 20260507075503 | 68 | 0 | 4.3 | 8.7 | 0.00 | 0.00 | 0.00 | 87 | 1011.2 |
| 20260507075403 | 68 | 0 | 4.3 | 9.6 | 0.00 | 0.00 | 0.00 | 87 | 1011.2 |
| 20260507075306 | 68 | 0 | 3.5 | 9.6 | 0.00 | 0.00 | 0.00 | 87 | 1011.2 |
| 20260507075202 | 68 | 0 | 4.3 | 9.6 | 0.00 | 0.00 | 0.00 | 87 | 1011.2 |
| 20260507075104 | 68 | 0 | 5.2 | 9.6 | 0.00 | 0.00 | 0.00 | 87 | 1011.3 |
| 20260507075003 | 68 | 48 | 5.2 | 10.4 | 0.00 | 0.00 | 0.00 | 87 | 1011.3 |
| 20260507074902 | 68 | 0 | 5.2 | 10.4 | 0.00 | 0.00 | 0.00 | 87 | 1011.2 |
| 20260507074804 | 68 | 0 | 5.2 | 10.4 | 0.00 | 0.00 | 0.00 | 87 | 1011.2 |
| 20260507074703 | 68 | 0 | 6.1 | 10.4 | 0.00 | 0.00 | 0.00 | 87 | 1011.2 |
| 20260507074603 | 68 | 0 | 5.2 | 10.4 | 0.00 | 0.00 | 0.00 | 87 | 1011.2 |
| 20260507074502 | 68 | 0 | 5.2 | 10.4 | 0.00 | 0.00 | 0.00 | 87 | 1011.2 |
| 20260507074402 | 68 | 1 | 6.1 | 10.4 | 0.00 | 0.00 | 0.00 | 87 | 1011.2 |
| 20260507074302 | 68 | 0 | 6.1 | 10.4 | 0.00 | 0.00 | 0.00 | 87 | 1011.3 |
| 20260507074202 | 68 | 0 | 6.1 | 10.4 | 0.00 | 0.00 | 0.00 | 87 | 1011.3 |
| 20260507074102 | 68 | 0 | 6.1 | 10.4 | 0.00 | 0.00 | 0.00 | 87 | 1011.3 |
| 20260507074002 | 68 | 3 | 4.3 | 7.8 | 0.00 | 0.00 | 0.00 | 87 | 1011.3 |
| 20260507073903 | 68 | 0 | 3.5 | 7.8 | 0.00 | 0.00 | 0.00 | 87 | 1011.2 |
| 20260507073802 | 68 | 0 | 3.5 | 7.8 | 0.00 | 0.00 | 0.00 | 87 | 1011.2 |
| 20260507073702 | 68 | 3 | 4.3 | 7.8 | 0.00 | 0.00 | 0.00 | 87 | 1011.2 |
| 20260507073603 | 68 | 0 | 4.3 | 7.8 | 0.00 | 0.00 | 0.00 | 87 | 1011.2 |
| 20260507073503 | 68 | 0 | 4.3 | 7.8 | 0.00 | 0.00 | 0.00 | 87 | 1011.2 |
| 20260507073402 | 68 | 0 | 4.3 | 7.8 | 0.00 | 0.00 | 0.00 | 87 | 1011.2 |
| 20260507073302 | 68 | 0 | 3.5 | 7.8 | 0.00 | 0.00 | 0.00 | 87 | 1011.2 |
| 20260507073203 | 68 | 3 | 3.5 | 7.8 | 0.00 | 0.00 | 0.00 | 87 | 1011.2 |
| 20260507073102 | 68 | 7 | 4.3 | 7.8 | 0.00 | 0.00 | 0.00 | 87 | 1011.2 |
| 20260507073002 | 68 | 0 | 4.3 | 10.4 | 0.00 | 0.00 | 0.00 | 87 | 1011.2 |
| 20260507072904 | 68 | 0 | 5.2 | 10.4 | 0.00 | 0.00 | 0.00 | 87 | 1011.2 |
| 20260507072802 | 68 | 0 | 3.5 | 10.4 | 0.00 | 0.00 | 0.00 | 87 | 1011.2 |
| 20260507072703 | 68 | 0 | 3.5 | 10.4 | 0.00 | 0.00 | 0.00 | 87 | 1011.2 |
| 20260507072602 | 68 | 0 | 3.5 | 10.4 | 0.00 | 0.00 | 0.00 | 87 | 1011.2 |
| 20260507072502 | 68 | 0 | 3.5 | 10.4 | 0.00 | 0.00 | 0.00 | 87 | 1011.3 |
| 20260507072402 | 68 | 0 | 3.5 | 10.4 | 0.00 | 0.00 | 0.00 | 87 | 1011.3 |
| 20260507072306 | 68 | 1 | 3.5 | 10.4 | 0.00 | 0.00 | 0.00 | 87 | 1011.4 |
| 20260507072202 | 68 | 0 | 5.2 | 10.4 | 0.00 | 0.00 | 0.00 | 87 | 1011.5 |
| 20260507072101 | 68 | 0 | 5.2 | 10.4 | 0.00 | 0.00 | 0.00 | 87 | 1011.5 |
| 20260507072001 | 68 | 0 | 4.3 | 9.6 | 0.00 | 0.00 | 0.00 | 87 | 1011.5 |
| 20260507071903 | 68 | 0 | 3.5 | 9.6 | 0.00 | 0.00 | 0.00 | 87 | 1011.6 |
| 20260507071802 | 68 | 4 | 3.5 | 9.6 | 0.00 | 0.00 | 0.00 | 87 | 1011.5 |
| 20260507071702 | 68 | 0 | 5.2 | 9.6 | 0.00 | 0.00 | 0.00 | 86 | 1011.5 |
| 20260507071601 | 68 | 0 | 6.1 | 9.6 | 0.00 | 0.00 | 0.00 | 87 | 1011.5 |
| 20260507071500 | 68 | 0 | 5.2 | 9.6 | 0.00 | 0.00 | 0.00 | 87 | 1011.5 |
| 20260507071401 | 68 | 0 | 3.5 | 9.6 | 0.00 | 0.00 | 0.00 | 87 | 1011.5 |
| 20260507071302 | 68 | 0 | 3.5 | 9.6 | 0.00 | 0.00 | 0.00 | 87 | 1011.6 |
| 20260507071159 | 68 | 0 | 3.5 | 9.6 | 0.00 | 0.00 | 0.00 | 86 | 1011.6 |
| 20260507071101 | 68 | 0 | 4.3 | 9.6 | 0.00 | 0.00 | 0.00 | 86 | 1011.6 |
| 20260507071000 | 68 | 0 | 4.3 | 9.6 | 0.00 | 0.00 | 0.00 | 86 | 1011.6 |
| 20260507070859 | 68 | 0 | 5.2 | 9.6 | 0.00 | 0.00 | 0.00 | 87 | 1011.5 |
| 20260507070759 | 68 | 0 | 6.1 | 9.6 | 0.00 | 0.00 | 0.00 | 86 | 1011.5 |
| 20260507070659 | 68 | 0 | 5.2 | 10.4 | 0.00 | 0.00 | 0.00 | 86 | 1011.4 |
| 20260507070556 | 68 | 0 | 5.2 | 10.4 | 0.00 | 0.00 | 0.00 | 87 | 1011.4 |
| 20260507070454 | 68 | 0 | 5.2 | 10.4 | 0.00 | 0.00 | 0.00 | 87 | 1011.5 |
| 20260507070353 | 68 | 0 | 5.2 | 10.4 | 0.00 | 0.00 | 0.00 | 86 | 1011.4 |
| 20260507070250 | 68 | 0 | 5.2 | 10.4 | 0.00 | 0.00 | 0.00 | 86 | 1011.3 |
| 20260507070147 | 68 | 0 | 4.3 | 10.4 | 0.00 | 0.00 | 0.00 | 86 | 1011.3 |
| 20260507070047 | 68 | 0 | 3.5 | 10.4 | 0.00 | 0.00 | 0.00 | 86 | 1011.4 |
| 20260507065947 | 68 | 0 | 3.5 | 10.4 | 0.00 | 0.00 | 0.00 | 86 | 1011.3 |
| 20260507065845 | 68 | 0 | 6.1 | 10.4 | 0.00 | 0.00 | 0.00 | 86 | 1011.4 |
| 20260507065743 | 68 | 0 | 7.0 | 10.4 | 0.00 | 0.00 | 0.00 | 86 | 1011.4 |
| 20260507065641 | 68 | 0 | 5.2 | 9.6 | 0.00 | 0.00 | 0.00 | 86 | 1011.4 |
| 20260507065540 | 68 | 4 | 4.3 | 9.6 | 0.00 | 0.00 | 0.00 | 86 | 1011.5 |
| 20260507065438 | 68 | 0 | 4.3 | 9.6 | 0.00 | 0.00 | 0.00 | 86 | 1011.5 |
| 20260507065337 | 68 | 0 | 6.1 | 9.6 | 0.00 | 0.00 | 0.00 | 86 | 1011.5 |
| 20260507065234 | 68 | 0 | 6.1 | 9.6 | 0.00 | 0.00 | 0.00 | 86 | 1011.6 |
| 20260507065132 | 68 | 0 | 5.2 | 9.6 | 0.00 | 0.00 | 0.00 | 86 | 1011.7 |
| 20260507065031 | 68 | 0 | 4.3 | 7.8 | 0.00 | 0.00 | 0.00 | 86 | 1011.6 |
| 20260507064931 | 68 | 0 | 4.3 | 7.8 | 0.00 | 0.00 | 0.00 | 86 | 1011.6 |
| 20260507064830 | 68 | 0 | 4.3 | 7.8 | 0.00 | 0.00 | 0.00 | 86 | 1011.5 |
| 20260507064732 | 68 | 0 | 3.5 | 7.8 | 0.00 | 0.00 | 0.00 | 86 | 1011.4 |
| 20260507064631 | 68 | 0 | 2.6 | 7.8 | 0.00 | 0.00 | 0.00 | 86 | 1011.3 |
| 20260507064531 | 68 | 0 | 3.5 | 7.8 | 0.00 | 0.00 | 0.00 | 86 | 1011.3 |
| 20260507064431 | 68 | 3 | 3.5 | 9.6 | 0.00 | 0.00 | 0.00 | 86 | 1011.2 |
| 20260507064333 | 68 | 0 | 4.3 | 9.6 | 0.00 | 0.00 | 0.00 | 86 | 1011.1 |
| 20260507064232 | 68 | 0 | 4.3 | 9.6 | 0.00 | 0.00 | 0.00 | 86 | 1011.2 |
| 20260507064131 | 68 | 0 | 4.3 | 11.3 | 0.00 | 0.00 | 0.00 | 86 | 1011.2 |
| 20260507064032 | 68 | 0 | 4.3 | 11.3 | 0.00 | 0.00 | 0.00 | 86 | 1011.2 |
| 20260507063932 | 68 | 0 | 3.5 | 11.3 | 0.00 | 0.00 | 0.00 | 86 | 1011.2 |
| 20260507063832 | 68 | 0 | 3.5 | 11.3 | 0.00 | 0.00 | 0.00 | 86 | 1011.3 |
| 20260507063731 | 68 | 0 | 5.2 | 11.3 | 0.00 | 0.00 | 0.00 | 86 | 1011.4 |
| 20260507063631 | 68 | 0 | 6.1 | 11.3 | 0.00 | 0.00 | 0.00 | 86 | 1011.4 |
| 20260507063532 | 68 | 0 | 5.2 | 11.3 | 0.00 | 0.00 | 0.00 | 86 | 1011.6 |
| 20260507063431 | 68 | 0 | 4.3 | 11.3 | 0.00 | 0.00 | 0.00 | 86 | 1011.6 |
| 20260507063332 | 68 | 0 | 5.2 | 11.3 | 0.00 | 0.00 | 0.00 | 86 | 1011.6 |
| 20260507063231 | 68 | 0 | 4.3 | 11.3 | 0.00 | 0.00 | 0.00 | 86 | 1011.6 |
| 20260507063130 | 68 | 0 | 4.3 | 11.3 | 0.00 | 0.00 | 0.00 | 86 | 1011.5 |
| 20260507063032 | 68 | 0 | 6.1 | 11.3 | 0.00 | 0.00 | 0.00 | 86 | 1011.5 |
| 20260507062933 | 68 | 0 | 6.1 | 11.3 | 0.00 | 0.00 | 0.00 | 86 | 1011.5 |
| 20260507062832 | 68 | 0 | 5.2 | 8.7 | 0.00 | 0.00 | 0.00 | 86 | 1011.4 |
| 20260507062731 | 68 | 0 | 5.2 | 8.7 | 0.00 | 0.00 | 0.00 | 86 | 1011.4 |
| 20260507062632 | 68 | 0 | 5.2 | 9.6 | 0.00 | 0.00 | 0.00 | 86 | 1011.3 |
| 20260507062531 | 68 | 0 | 5.2 | 9.6 | 0.00 | 0.00 | 0.00 | 86 | 1011.3 |
| 20260507062431 | 68 | 7 | 5.2 | 9.6 | 0.00 | 0.00 | 0.00 | 86 | 1011.2 |
| 20260507062333 | 68 | 0 | 4.3 | 9.6 | 0.00 | 0.00 | 0.00 | 86 | 1011.2 |
| 20260507062231 | 68 | 0 | 4.3 | 9.6 | 0.00 | 0.00 | 0.00 | 86 | 1011.1 |
| 20260507062130 | 68 | 0 | 5.2 | 9.6 | 0.00 | 0.00 | 0.00 | 86 | 1011.1 |
| 20260507062029 | 68 | 0 | 4.3 | 11.3 | 0.00 | 0.00 | 0.00 | 86 | 1011.1 |
| 20260507061927 | 68 | 0 | 4.3 | 11.3 | 0.00 | 0.00 | 0.00 | 86 | 1011.0 |
| 20260507061825 | 68 | 0 | 6.1 | 11.3 | 0.00 | 0.00 | 0.00 | 86 | 1011.1 |
| 20260507061723 | 68 | 0 | 6.1 | 11.3 | 0.00 | 0.00 | 0.00 | 86 | 1011.1 |
| 20260507061622 | 68 | 0 | 4.3 | 11.3 | 0.00 | 0.00 | 0.00 | 86 | 1011.2 |
| 20260507061520 | 68 | 1 | 3.5 | 11.3 | 0.00 | 0.00 | 0.00 | 86 | 1011.2 |
| 20260507061419 | 68 | 0 | 5.2 | 11.3 | 0.00 | 0.00 | 0.00 | 85 | 1011.3 |
| 20260507061318 | 68 | 0 | 7.0 | 11.3 | 0.00 | 0.00 | 0.00 | 85 | 1011.3 |
| 20260507061216 | 68 | 1 | 6.1 | 11.3 | 0.00 | 0.00 | 0.00 | 85 | 1011.3 |
| 20260507061114 | 68 | 1 | 5.2 | 10.4 | 0.00 | 0.00 | 0.00 | 85 | 1011.4 |
| 20260507061013 | 68 | 0 | 5.2 | 10.4 | 0.00 | 0.00 | 0.00 | 85 | 1011.3 |
| 20260507060912 | 69 | 0 | 6.1 | 11.3 | 0.00 | 0.00 | 0.00 | 85 | 1011.3 |
| 20260507060810 | 69 | 0 | 5.2 | 11.3 | 0.00 | 0.00 | 0.00 | 86 | 1011.3 |
| 20260507060709 | 69 | 0 | 4.3 | 11.3 | 0.00 | 0.00 | 0.00 | 86 | 1011.3 |
| 20260507060607 | 68 | 0 | 5.2 | 11.3 | 0.00 | 0.00 | 0.00 | 85 | 1011.3 |
| 20260507060506 | 69 | 3 | 6.1 | 11.3 | 0.00 | 0.00 | 0.00 | 86 | 1011.3 |
| 20260507060404 | 69 | 1 | 7.0 | 11.3 | 0.00 | 0.00 | 0.00 | 86 | 1011.3 |
| 20260507060301 | 69 | 0 | 4.3 | 11.3 | 0.00 | 0.00 | 0.00 | 85 | 1011.2 |
| 20260507060201 | 69 | 0 | 4.3 | 11.3 | 0.00 | 0.00 | 0.00 | 86 | 1011.2 |
| 20260507060104 | 69 | 4 | 5.2 | 11.3 | 0.00 | 0.00 | 0.00 | 85 | 1011.3 |
| 20260507060004 | 69 | 0 | 6.1 | 11.3 | 0.00 | 0.00 | 0.00 | 85 | 1011.3 |
| 20260507055903 | 69 | 1 | 6.1 | 11.3 | 0.00 | 0.00 | 0.00 | 85 | 1011.3 |
| 20260507055802 | 69 | 0 | 7.8 | 11.3 | 0.00 | 0.00 | 0.00 | 85 | 1011.3 |
| 20260507055702 | 69 | 0 | 7.0 | 11.3 | 0.00 | 0.00 | 0.00 | 85 | 1011.3 |
| 20260507055604 | 69 | 0 | 5.2 | 10.4 | 0.00 | 0.00 | 0.00 | 85 | 1011.3 |
| 20260507055502 | 69 | 0 | 4.3 | 10.4 | 0.00 | 0.00 | 0.00 | 85 | 1011.3 |
| 20260507055402 | 69 | 0 | 4.3 | 10.4 | 0.00 | 0.00 | 0.00 | 85 | 1011.3 |
| 20260507055305 | 69 | 0 | 4.3 | 10.4 | 0.00 | 0.00 | 0.00 | 85 | 1011.3 |
| 20260507055202 | 69 | 0 | 4.3 | 10.4 | 0.00 | 0.00 | 0.00 | 85 | 1011.3 |
| 20260507055103 | 69 | 4 | 5.2 | 10.4 | 0.00 | 0.00 | 0.00 | 85 | 1011.3 |
| 20260507055003 | 69 | 0 | 4.3 | 10.4 | 0.00 | 0.00 | 0.00 | 85 | 1011.3 |
| 20260507054902 | 69 | 1 | 4.3 | 10.4 | 0.00 | 0.00 | 0.00 | 85 | 1011.2 |
| 20260507054802 | 69 | 0 | 6.1 | 10.4 | 0.00 | 0.00 | 0.00 | 85 | 1011.2 |
| 20260507054702 | 69 | 0 | 5.2 | 10.4 | 0.00 | 0.00 | 0.00 | 85 | 1011.1 |
| 20260507054602 | 69 | 0 | 4.3 | 10.4 | 0.00 | 0.00 | 0.00 | 85 | 1011.1 |
| 20260507054503 | 69 | 0 | 4.3 | 10.4 | 0.00 | 0.00 | 0.00 | 85 | 1011.0 |
| 20260507054402 | 69 | 0 | 4.3 | 10.4 | 0.00 | 0.00 | 0.00 | 85 | 1011.0 |
| 20260507054303 | 69 | 0 | 5.2 | 10.4 | 0.00 | 0.00 | 0.00 | 85 | 1010.9 |
| 20260507054202 | 69 | 0 | 4.3 | 10.4 | 0.00 | 0.00 | 0.00 | 85 | 1011.0 |
| 20260507054102 | 69 | 0 | 3.5 | 10.4 | 0.00 | 0.00 | 0.00 | 85 | 1010.9 |
| 20260507054004 | 69 | 0 | 4.3 | 10.4 | 0.00 | 0.00 | 0.00 | 85 | 1010.9 |
| 20260507053903 | 69 | 1 | 5.2 | 10.4 | 0.00 | 0.00 | 0.00 | 85 | 1010.9 |
| 20260507053802 | 69 | 0 | 4.3 | 10.4 | 0.00 | 0.00 | 0.00 | 85 | 1011.0 |
| 20260507053703 | 69 | 0 | 5.2 | 10.4 | 0.00 | 0.00 | 0.00 | 85 | 1011.0 |
| 20260507053603 | 69 | 3 | 5.2 | 10.4 | 0.00 | 0.00 | 0.00 | 85 | 1011.0 |
| 20260507053504 | 69 | 0 | 4.3 | 10.4 | 0.00 | 0.00 | 0.00 | 85 | 1011.0 |
| 20260507053403 | 69 | 0 | 5.2 | 10.4 | 0.00 | 0.00 | 0.00 | 85 | 1011.0 |
| 20260507053304 | 69 | 0 | 5.2 | 10.4 | 0.00 | 0.00 | 0.00 | 85 | 1011.0 |
| 20260507053203 | 69 | 0 | 4.3 | 10.4 | 0.00 | 0.00 | 0.00 | 85 | 1011.0 |
| 20260507053103 | 69 | 0 | 3.5 | 10.4 | 0.00 | 0.00 | 0.00 | 85 | 1010.9 |
| 20260507053003 | 69 | 0 | 5.2 | 10.4 | 0.00 | 0.00 | 0.00 | 85 | 1010.9 |
| 20260507052902 | 69 | 0 | 5.2 | 10.4 | 0.00 | 0.00 | 0.00 | 85 | 1010.9 |
| 20260507052803 | 69 | 0 | 5.2 | 10.4 | 0.00 | 0.00 | 0.00 | 85 | 1011.0 |
| 20260507052701 | 69 | 0 | 5.2 | 10.4 | 0.00 | 0.00 | 0.00 | 85 | 1011.0 |
| 20260507052603 | 69 | 0 | 5.2 | 10.4 | 0.00 | 0.00 | 0.00 | 85 | 1011.1 |
| 20260507052504 | 69 | 0 | 5.2 | 11.3 | 0.00 | 0.00 | 0.00 | 85 | 1011.0 |
| 20260507052402 | 69 | 0 | 6.1 | 11.3 | 0.00 | 0.00 | 0.00 | 85 | 1011.0 |
| 20260507052305 | 69 | 0 | 6.1 | 11.3 | 0.00 | 0.00 | 0.00 | 85 | 1011.0 |
| 20260507052202 | 69 | 0 | 6.1 | 11.3 | 0.00 | 0.00 | 0.00 | 85 | 1011.0 |
| 20260507052102 | 69 | 0 | 5.2 | 11.3 | 0.00 | 0.00 | 0.00 | 85 | 1011.0 |
| 20260507052003 | 69 | 0 | 4.3 | 11.3 | 0.00 | 0.00 | 0.00 | 85 | 1011.1 |
| 20260507051904 | 69 | 0 | 5.2 | 11.3 | 0.00 | 0.00 | 0.00 | 85 | 1011.0 |
| 20260507051803 | 69 | 0 | 5.2 | 11.3 | 0.00 | 0.00 | 0.00 | 85 | 1011.0 |
| 20260507051702 | 69 | 4 | 6.1 | 11.3 | 0.00 | 0.00 | 0.00 | 85 | 1011.1 |
| 20260507051603 | 70 | 0 | 4.3 | 11.3 | 0.00 | 0.00 | 0.00 | 85 | 1011.1 |
| 20260507051504 | 69 | 0 | 3.5 | 9.6 | 0.00 | 0.00 | 0.00 | 85 | 1011.2 |
| 20260507051402 | 70 | 0 | 5.2 | 9.6 | 0.00 | 0.00 | 0.00 | 85 | 1011.1 |
| 20260507051302 | 70 | 0 | 6.1 | 9.6 | 0.00 | 0.00 | 0.00 | 85 | 1011.2 |
| 20260507051203 | 70 | 0 | 6.1 | 9.6 | 0.00 | 0.00 | 0.00 | 85 | 1011.2 |
| 20260507051102 | 70 | 0 | 5.2 | 9.6 | 0.00 | 0.00 | 0.00 | 85 | 1011.2 |
| 20260507051003 | 70 | 0 | 5.2 | 9.6 | 0.00 | 0.00 | 0.00 | 85 | 1011.1 |
| 20260507050905 | 70 | 3 | 4.3 | 9.6 | 0.00 | 0.00 | 0.00 | 85 | 1011.2 |
| 20260507050802 | 70 | 0 | 4.3 | 9.6 | 0.00 | 0.00 | 0.00 | 85 | 1011.1 |
| 20260507050703 | 70 | 3 | 3.5 | 9.6 | 0.00 | 0.00 | 0.00 | 85 | 1011.1 |
| 20260507050602 | 70 | 1 | 3.5 | 9.6 | 0.00 | 0.00 | 0.00 | 85 | 1011.0 |
| 20260507050501 | 70 | 0 | 3.5 | 9.6 | 0.00 | 0.00 | 0.00 | 85 | 1011.0 |
| 20260507050401 | 70 | 0 | 4.3 | 9.6 | 0.00 | 0.00 | 0.00 | 85 | 1011.1 |
| 20260507050300 | 70 | 0 | 6.1 | 9.6 | 0.00 | 0.00 | 0.00 | 85 | 1011.1 |
| 20260507050157 | 70 | 0 | 5.2 | 9.6 | 0.00 | 0.00 | 0.00 | 86 | 1011.0 |
| 20260507050056 | 70 | 0 | 4.3 | 9.6 | 0.00 | 0.00 | 0.00 | 86 | 1011.0 |
| 20260507045957 | 70 | 0 | 4.3 | 8.7 | 0.00 | 0.00 | 0.00 | 86 | 1011.1 |
| 20260507045857 | 70 | 0 | 4.3 | 8.7 | 0.00 | 0.00 | 0.00 | 86 | 1011.0 |
| 20260507045757 | 70 | 0 | 3.5 | 8.7 | 0.00 | 0.00 | 0.00 | 86 | 1011.1 |
| 20260507045656 | 70 | 0 | 3.5 | 8.7 | 0.00 | 0.00 | 0.00 | 86 | 1011.1 |
| 20260507045555 | 70 | 0 | 3.5 | 8.7 | 0.00 | 0.00 | 0.00 | 86 | 1011.1 |
| 20260507045457 | 70 | 0 | 3.5 | 8.7 | 0.00 | 0.00 | 0.00 | 86 | 1011.1 |
| 20260507045356 | 70 | 0 | 3.5 | 8.7 | 0.00 | 0.00 | 0.00 | 86 | 1011.1 |
| 20260507045256 | 70 | 0 | 5.2 | 8.7 | 0.00 | 0.00 | 0.00 | 85 | 1011.0 |
| 20260507045156 | 70 | 0 | 6.1 | 8.7 | 0.00 | 0.00 | 0.00 | 85 | 1011.1 |
| 20260507045057 | 70 | 0 | 6.1 | 8.7 | 0.00 | 0.00 | 0.00 | 85 | 1011.1 |
| 20260507044956 | 70 | 0 | 5.2 | 9.6 | 0.00 | 0.00 | 0.00 | 85 | 1011.1 |
| 20260507044856 | 70 | 0 | 3.5 | 9.6 | 0.00 | 0.00 | 0.00 | 85 | 1011.1 |
| 20260507044757 | 70 | 0 | 2.6 | 9.6 | 0.00 | 0.00 | 0.00 | 85 | 1011.0 |
| 20260507044656 | 70 | 4 | 2.6 | 9.6 | 0.00 | 0.00 | 0.00 | 85 | 1011.0 |
| 20260507044556 | 70 | 0 | 3.5 | 9.6 | 0.00 | 0.00 | 0.00 | 85 | 1011.0 |
| 20260507044457 | 70 | 0 | 4.3 | 9.6 | 0.00 | 0.00 | 0.00 | 85 | 1011.0 |
| 20260507044356 | 70 | 0 | 4.3 | 9.6 | 0.00 | 0.00 | 0.00 | 85 | 1010.9 |
| 20260507044256 | 70 | 0 | 4.3 | 12.2 | 0.00 | 0.00 | 0.00 | 85 | 1010.8 |
| 20260507044156 | 70 | 0 | 5.2 | 12.2 | 0.00 | 0.00 | 0.00 | 85 | 1010.8 |
| 20260507044057 | 70 | 0 | 5.2 | 12.2 | 0.00 | 0.00 | 0.00 | 85 | 1010.8 |
| 20260507043958 | 70 | 0 | 5.2 | 12.2 | 0.00 | 0.00 | 0.00 | 85 | 1010.8 |
| 20260507043856 | 70 | 4 | 5.2 | 12.2 | 0.00 | 0.00 | 0.00 | 85 | 1010.7 |
| 20260507043756 | 71 | 3 | 5.2 | 12.2 | 0.00 | 0.00 | 0.00 | 85 | 1010.6 |
| 20260507043657 | 71 | 8 | 5.2 | 12.2 | 0.00 | 0.00 | 0.00 | 85 | 1010.6 |
| 20260507043557 | 71 | 6 | 5.2 | 12.2 | 0.00 | 0.00 | 0.00 | 85 | 1010.6 |
| 20260507043456 | 71 | 0 | 7.0 | 12.2 | 0.00 | 0.00 | 0.00 | 85 | 1010.7 |
| 20260507043357 | 71 | 0 | 7.0 | 12.2 | 0.00 | 0.00 | 0.00 | 85 | 1010.6 |
| 20260507043256 | 71 | 0 | 4.3 | 10.4 | 0.00 | 0.00 | 0.00 | 85 | 1010.7 |
| 20260507043155 | 71 | 0 | 4.3 | 10.4 | 0.00 | 0.00 | 0.00 | 85 | 1010.8 |
| 20260507043057 | 71 | 0 | 5.2 | 10.4 | 0.00 | 0.00 | 0.00 | 85 | 1010.9 |
| 20260507042956 | 71 | 68 | 5.2 | 10.4 | 0.00 | 0.00 | 0.00 | 85 | 1010.8 |
| 20260507042856 | 71 | 1 | 5.2 | 10.4 | 0.00 | 0.00 | 0.00 | 85 | 1011.0 |
| 20260507042756 | 71 | 0 | 6.1 | 10.4 | 0.00 | 0.00 | 0.00 | 85 | 1010.9 |
| 20260507042658 | 71 | 0 | 6.1 | 10.4 | 0.00 | 0.00 | 0.00 | 85 | 1010.9 |
| 20260507042556 | 71 | 1 | 5.2 | 10.4 | 0.00 | 0.00 | 0.00 | 85 | 1010.9 |
| 20260507042458 | 71 | 1 | 4.3 | 8.7 | 0.00 | 0.00 | 0.00 | 85 | 1010.9 |
| 20260507042357 | 71 | 0 | 3.5 | 8.7 | 0.00 | 0.00 | 0.00 | 85 | 1011.0 |
| 20260507042255 | 71 | 0 | 3.5 | 8.7 | 0.00 | 0.00 | 0.00 | 85 | 1011.0 |
| 20260507042156 | 71 | 0 | 2.6 | 8.7 | 0.00 | 0.00 | 0.00 | 85 | 1011.1 |
| 20260507042053 | 71 | 0 | 3.5 | 9.6 | 0.00 | 0.00 | 0.00 | 85 | 1011.1 |
| 20260507041952 | 71 | 0 | 4.3 | 9.6 | 0.00 | 0.00 | 0.00 | 85 | 1011.0 |
| 20260507041850 | 71 | 0 | 4.3 | 9.6 | 0.00 | 0.00 | 0.00 | 85 | 1011.0 |
| 20260507041749 | 71 | 0 | 4.3 | 9.6 | 0.00 | 0.00 | 0.00 | 85 | 1011.0 |
| 20260507041647 | 71 | 0 | 3.5 | 10.4 | 0.00 | 0.00 | 0.00 | 85 | 1011.0 |
| 20260507041546 | 71 | 1 | 4.3 | 10.4 | 0.00 | 0.00 | 0.00 | 85 | 1010.9 |
| 20260507041446 | 71 | 0 | 5.2 | 10.4 | 0.00 | 0.00 | 0.00 | 85 | 1011.0 |
| 20260507041345 | 71 | 0 | 5.2 | 10.4 | 0.00 | 0.00 | 0.00 | 85 | 1011.0 |
| 20260507041242 | 71 | 0 | 6.1 | 10.4 | 0.00 | 0.00 | 0.00 | 85 | 1011.0 |
| 20260507041141 | 71 | 0 | 5.2 | 10.4 | 0.00 | 0.00 | 0.00 | 85 | 1011.0 |
| 20260507041040 | 71 | 0 | 5.2 | 10.4 | 0.00 | 0.00 | 0.00 | 85 | 1011.0 |
| 20260507040939 | 71 | 0 | 6.1 | 10.4 | 0.00 | 0.00 | 0.00 | 85 | 1011.0 |
| 20260507040836 | 71 | 0 | 6.1 | 10.4 | 0.00 | 0.00 | 0.00 | 85 | 1011.0 |
| 20260507040737 | 71 | 0 | 5.2 | 10.4 | 0.00 | 0.00 | 0.00 | 85 | 1011.0 |
| 20260507040635 | 71 | 0 | 5.2 | 10.4 | 0.00 | 0.00 | 0.00 | 85 | 1011.1 |
| 20260507040531 | 71 | 0 | 6.1 | 10.4 | 0.00 | 0.00 | 0.00 | 85 | 1011.1 |
| 20260507040433 | 71 | 0 | 6.1 | 10.4 | 0.00 | 0.00 | 0.00 | 85 | 1011.0 |
| 20260507040333 | 71 | 0 | 6.1 | 10.4 | 0.00 | 0.00 | 0.00 | 85 | 1011.0 |
| 20260507040233 | 71 | 0 | 6.1 | 12.2 | 0.00 | 0.00 | 0.00 | 85 | 1011.0 |
| 20260507040130 | 71 | 0 | 7.0 | 12.2 | 0.00 | 0.00 | 0.00 | 85 | 1011.0 |
| 20260507040032 | 71 | 0 | 6.1 | 12.2 | 0.00 | 0.00 | 0.00 | 85 | 1011.0 |
| 20260507035932 | 71 | 0 | 5.2 | 12.2 | 0.00 | 0.00 | 0.00 | 85 | 1011.0 |
| 20260507035830 | 71 | 0 | 5.2 | 12.2 | 0.00 | 0.00 | 0.00 | 85 | 1011.0 |
| 20260507035731 | 71 | 0 | 4.3 | 12.2 | 0.00 | 0.00 | 0.00 | 85 | 1011.0 |
| 20260507035631 | 71 | 0 | 3.5 | 12.2 | 0.00 | 0.00 | 0.00 | 85 | 1010.9 |
| 20260507035532 | 71 | 0 | 3.5 | 12.2 | 0.00 | 0.00 | 0.00 | 85 | 1010.9 |
| 20260507035432 | 71 | 0 | 5.2 | 12.2 | 0.00 | 0.00 | 0.00 | 85 | 1010.9 |
| 20260507035330 | 72 | 0 | 6.1 | 12.2 | 0.00 | 0.00 | 0.00 | 85 | 1010.8 |
| 20260507035232 | 71 | 0 | 4.3 | 11.3 | 0.00 | 0.00 | 0.00 | 86 | 1010.9 |
| 20260507035131 | 72 | 0 | 4.3 | 11.3 | 0.00 | 0.00 | 0.00 | 86 | 1010.8 |
| 20260507035031 | 72 | 0 | 6.1 | 11.3 | 0.00 | 0.00 | 0.00 | 86 | 1010.8 |
| 20260507034932 | 72 | 0 | 6.1 | 11.3 | 0.00 | 0.00 | 0.00 | 86 | 1010.8 |
| 20260507034831 | 72 | 0 | 5.2 | 11.3 | 0.00 | 0.00 | 0.00 | 86 | 1010.8 |
| 20260507034730 | 72 | 3 | 4.3 | 11.3 | 0.00 | 0.00 | 0.00 | 86 | 1010.8 |
| 20260507034632 | 72 | 0 | 5.2 | 11.3 | 0.00 | 0.00 | 0.00 | 86 | 1010.8 |
| 20260507034531 | 72 | 0 | 6.1 | 11.3 | 0.00 | 0.00 | 0.00 | 86 | 1010.7 |
| 20260507034431 | 72 | 0 | 7.0 | 11.3 | 0.00 | 0.00 | 0.00 | 86 | 1010.8 |
| 20260507034328 | 72 | 3 | 7.0 | 11.3 | 0.00 | 0.00 | 0.00 | 86 | 1010.7 |
| 20260507034224 | 72 | 0 | 6.1 | 11.3 | 0.00 | 0.00 | 0.00 | 86 | 1010.6 |
| 20260507034123 | 72 | 0 | 6.1 | 10.4 | 0.00 | 0.00 | 0.00 | 86 | 1010.7 |
| 20260507034020 | 72 | 0 | 6.1 | 10.4 | 0.00 | 0.00 | 0.00 | 86 | 1010.6 |
| 20260507033920 | 72 | 0 | 4.3 | 10.4 | 0.00 | 0.00 | 0.00 | 86 | 1010.6 |
| 20260507033814 | 72 | 0 | 5.2 | 10.4 | 0.00 | 0.00 | 0.00 | 86 | 1010.6 |
| 20260507033715 | 72 | 0 | 6.1 | 10.4 | 0.00 | 0.00 | 0.00 | 86 | 1010.6 |
| 20260507033613 | 72 | 0 | 6.1 | 10.4 | 0.00 | 0.00 | 0.00 | 86 | 1010.5 |
| 20260507033511 | 72 | 0 | 6.1 | 10.4 | 0.00 | 0.00 | 0.00 | 86 | 1010.5 |
| 20260507033406 | 72 | 0 | 5.2 | 10.4 | 0.00 | 0.00 | 0.00 | 86 | 1010.4 |
| 20260507033305 | 72 | 0 | 4.3 | 9.6 | 0.00 | 0.00 | 0.00 | 86 | 1010.3 |
| 20260507033202 | 72 | 0 | 5.2 | 9.6 | 0.00 | 0.00 | 0.00 | 86 | 1010.4 |
| 20260507033102 | 72 | 1 | 5.2 | 9.6 | 0.00 | 0.00 | 0.00 | 86 | 1010.4 |
| 20260507033002 | 72 | 0 | 5.2 | 9.6 | 0.00 | 0.00 | 0.00 | 86 | 1010.3 |
| 20260507032903 | 72 | 0 | 5.2 | 9.6 | 0.00 | 0.00 | 0.00 | 86 | 1010.3 |
| 20260507032802 | 72 | 0 | 4.3 | 9.6 | 0.00 | 0.00 | 0.00 | 86 | 1010.3 |
| 20260507032702 | 72 | 0 | 4.3 | 8.7 | 0.00 | 0.00 | 0.00 | 86 | 1010.3 |
| 20260507032604 | 72 | 0 | 4.3 | 8.7 | 0.00 | 0.00 | 0.00 | 86 | 1010.3 |
| 20260507032504 | 72 | 0 | 3.5 | 8.7 | 0.00 | 0.00 | 0.00 | 86 | 1010.3 |
| 20260507032402 | 72 | 0 | 3.5 | 8.7 | 0.00 | 0.00 | 0.00 | 87 | 1010.3 |
| 20260507032305 | 72 | 0 | 4.3 | 9.6 | 0.00 | 0.00 | 0.00 | 86 | 1010.1 |
| 20260507032203 | 72 | 0 | 5.2 | 9.6 | 0.00 | 0.00 | 0.00 | 87 | 1010.2 |
| 20260507032102 | 72 | 0 | 4.3 | 9.6 | 0.00 | 0.00 | 0.00 | 87 | 1010.1 |
| 20260507032003 | 72 | 0 | 4.3 | 9.6 | 0.00 | 0.00 | 0.00 | 87 | 1010.2 |
| 20260507031903 | 72 | 0 | 3.5 | 9.6 | 0.00 | 0.00 | 0.00 | 87 | 1010.2 |
| 20260507031802 | 72 | 0 | 3.5 | 10.4 | 0.00 | 0.00 | 0.00 | 87 | 1010.2 |
| 20260507031702 | 72 | 0 | 3.5 | 10.4 | 0.00 | 0.00 | 0.00 | 87 | 1010.1 |
| 20260507031603 | 72 | 0 | 5.2 | 10.4 | 0.00 | 0.00 | 0.00 | 87 | 1010.0 |
| 20260507031503 | 72 | 0 | 5.2 | 10.4 | 0.00 | 0.00 | 0.00 | 87 | 1010.0 |
| 20260507031404 | 72 | 0 | 5.2 | 10.4 | 0.00 | 0.00 | 0.00 | 87 | 1010.0 |
| 20260507031304 | 72 | 0 | 4.3 | 10.4 | 0.00 | 0.00 | 0.00 | 87 | 1010.1 |
| 20260507031203 | 72 | 0 | 4.3 | 10.4 | 0.00 | 0.00 | 0.00 | 87 | 1010.0 |
| 20260507031102 | 72 | 0 | 5.2 | 10.4 | 0.00 | 0.00 | 0.00 | 87 | 1009.9 |
| 20260507031002 | 72 | 0 | 6.1 | 10.4 | 0.00 | 0.00 | 0.00 | 87 | 1009.9 |
| 20260507030903 | 72 | 0 | 7.0 | 10.4 | 0.00 | 0.00 | 0.00 | 87 | 1009.9 |
| 20260507030802 | 72 | 0 | 6.1 | 10.4 | 0.00 | 0.00 | 0.00 | 87 | 1009.9 |
| 20260507030702 | 73 | 0 | 5.2 | 10.4 | 0.00 | 0.00 | 0.00 | 87 | 1009.9 |
| 20260507030604 | 73 | 0 | 5.2 | 10.4 | 0.00 | 0.00 | 0.00 | 87 | 1009.8 |
| 20260507030503 | 73 | 0 | 6.1 | 9.6 | 0.00 | 0.00 | 0.00 | 87 | 1009.8 |
| 20260507030402 | 73 | 0 | 7.0 | 9.6 | 0.00 | 0.00 | 0.00 | 88 | 1009.8 |
| 20260507030302 | 73 | 0 | 5.2 | 9.6 | 0.00 | 0.00 | 0.00 | 88 | 1009.8 |
| 20260507030204 | 73 | 0 | 4.3 | 8.7 | 0.00 | 0.00 | 0.00 | 88 | 1009.8 |
| 20260507030003 | 73 | 0 | 5.2 | 8.7 | 0.00 | 0.00 | 0.00 | 88 | 1009.8 |
| 20260507025903 | 73 | 0 | 4.3 | 8.7 | 0.00 | 0.00 | 0.00 | 88 | 1009.8 |
| 20260507025802 | 73 | 0 | 4.3 | 8.7 | 0.00 | 0.00 | 0.00 | 88 | 1009.7 |
| 20260507025702 | 73 | 0 | 5.2 | 8.7 | 0.00 | 0.00 | 0.00 | 88 | 1009.7 |
| 20260507025603 | 73 | 0 | 5.2 | 8.7 | 0.00 | 0.00 | 0.00 | 88 | 1009.7 |
| 20260507025504 | 73 | 0 | 5.2 | 8.7 | 0.00 | 0.00 | 0.00 | 88 | 1009.7 |
| 20260507025402 | 73 | 0 | 4.3 | 8.7 | 0.00 | 0.00 | 0.00 | 88 | 1009.6 |
| 20260507025306 | 73 | 0 | 5.2 | 8.7 | 0.00 | 0.00 | 0.00 | 88 | 1009.6 |
| 20260507025203 | 73 | 0 | 7.0 | 8.7 | 0.00 | 0.00 | 0.00 | 88 | 1009.6 |
| 20260507025103 | 73 | 0 | 5.2 | 8.7 | 0.00 | 0.00 | 0.00 | 88 | 1009.6 |
| 20260507025003 | 73 | 0 | 5.2 | 8.7 | 0.00 | 0.00 | 0.00 | 88 | 1009.6 |
| 20260507024904 | 73 | 0 | 5.2 | 8.7 | 0.00 | 0.00 | 0.00 | 88 | 1009.6 |
| 20260507024803 | 73 | 0 | 5.2 | 8.7 | 0.00 | 0.00 | 0.00 | 88 | 1009.4 |
| 20260507024702 | 73 | 0 | 4.3 | 7.8 | 0.00 | 0.00 | 0.00 | 89 | 1009.5 |
| 20260507024602 | 73 | 0 | 4.3 | 7.8 | 0.00 | 0.00 | 0.00 | 89 | 1009.4 |
| 20260507024503 | 73 | 0 | 4.3 | 7.8 | 0.00 | 0.00 | 0.00 | 89 | 1009.3 |
| 20260507024403 | 73 | 0 | 4.3 | 7.8 | 0.00 | 0.00 | 0.00 | 89 | 1009.3 |
| 20260507024302 | 73 | 0 | 4.3 | 8.7 | 0.00 | 0.00 | 0.00 | 89 | 1009.3 |
| 20260507024203 | 73 | 0 | 4.3 | 8.7 | 0.00 | 0.00 | 0.00 | 89 | 1009.2 |
| 20260507024103 | 73 | 0 | 5.2 | 8.7 | 0.00 | 0.00 | 0.00 | 89 | 1009.3 |
| 20260507024002 | 74 | 0 | 5.2 | 8.7 | 0.00 | 0.00 | 0.00 | 89 | 1009.2 |
| 20260507023903 | 74 | 0 | 4.3 | 8.7 | 0.00 | 0.00 | 0.00 | 89 | 1009.2 |
| 20260507023802 | 74 | 0 | 3.5 | 8.7 | 0.00 | 0.00 | 0.00 | 89 | 1009.1 |
| 20260507023703 | 74 | 0 | 3.5 | 8.7 | 0.00 | 0.00 | 0.00 | 89 | 1009.1 |
| 20260507023602 | 74 | 0 | 4.3 | 8.7 | 0.00 | 0.00 | 0.00 | 89 | 1009.1 |
| 20260507023504 | 74 | 0 | 4.3 | 8.7 | 0.00 | 0.00 | 0.00 | 89 | 1009.0 |
| 20260507023402 | 74 | 0 | 5.2 | 8.7 | 0.00 | 0.00 | 0.00 | 89 | 1009.0 |
| 20260507023303 | 74 | 0 | 5.2 | 7.8 | 0.00 | 0.00 | 0.00 | 89 | 1009.0 |
| 20260507023203 | 74 | 0 | 4.3 | 8.7 | 0.00 | 0.00 | 0.00 | 89 | 1009.0 |
| 20260507023103 | 74 | 0 | 4.3 | 8.7 | 0.00 | 0.00 | 0.00 | 89 | 1009.0 |
| 20260507023002 | 74 | 0 | 4.3 | 8.7 | 0.00 | 0.00 | 0.00 | 89 | 1009.0 |
| 20260507022902 | 74 | 0 | 4.3 | 8.7 | 0.00 | 0.00 | 0.00 | 89 | 1008.9 |
| 20260507022802 | 74 | 0 | 4.3 | 8.7 | 0.00 | 0.00 | 0.00 | 89 | 1008.9 |
| 20260507022703 | 74 | 0 | 3.5 | 8.7 | 0.00 | 0.00 | 0.00 | 89 | 1008.9 |
| 20260507022602 | 74 | 0 | 4.3 | 8.7 | 0.00 | 0.00 | 0.00 | 89 | 1008.8 |
| 20260507022502 | 74 | 0 | 4.3 | 8.7 | 0.00 | 0.00 | 0.00 | 89 | 1008.8 |
| 20260507022402 | 74 | 0 | 4.3 | 8.7 | 0.00 | 0.00 | 0.00 | 89 | 1008.8 |
| 20260507022306 | 74 | 0 | 5.2 | 8.7 | 0.00 | 0.00 | 0.00 | 89 | 1008.9 |
| 20260507022202 | 74 | 0 | 5.2 | 8.7 | 0.00 | 0.00 | 0.00 | 89 | 1009.0 |
| 20260507022102 | 74 | 0 | 3.5 | 9.6 | 0.00 | 0.00 | 0.00 | 89 | 1008.9 |
| 20260507022003 | 74 | 305 | 3.5 | 9.6 | 0.00 | 0.00 | 0.00 | 89 | 1008.9 |
| 20260507021902 | 74 | 316 | 3.5 | 9.6 | 0.00 | 0.00 | 0.00 | 89 | 1008.9 |
| 20260507021804 | 74 | 323 | 4.3 | 9.6 | 0.00 | 0.00 | 0.00 | 89 | 1008.9 |
| 20260507021702 | 74 | 293 | 3.5 | 9.6 | 0.00 | 0.00 | 0.00 | 89 | 1008.8 |
| 20260507021601 | 74 | 316 | 2.6 | 9.6 | 0.00 | 0.00 | 0.00 | 89 | 1008.8 |
| 20260507021503 | 74 | 326 | 3.5 | 9.6 | 0.00 | 0.00 | 0.00 | 89 | 1008.8 |
| 20260507021404 | 74 | 329 | 5.2 | 9.6 | 0.00 | 0.00 | 0.00 | 89 | 1008.8 |
| 20260507021302 | 74 | 319 | 5.2 | 9.6 | 0.00 | 0.00 | 0.00 | 89 | 1008.8 |
| 20260507021202 | 74 | 320 | 6.1 | 9.6 | 0.00 | 0.00 | 0.00 | 89 | 1008.8 |
| 20260507021103 | 74 | 310 | 6.1 | 9.6 | 0.00 | 0.00 | 0.00 | 89 | 1008.8 |
| 20260507021002 | 74 | 317 | 6.1 | 9.6 | 0.00 | 0.00 | 0.00 | 89 | 1008.7 |
| 20260507020902 | 74 | 329 | 5.2 | 9.6 | 0.00 | 0.00 | 0.00 | 89 | 1008.7 |
| 20260507020800 | 74 | 317 | 5.2 | 11.3 | 0.00 | 0.00 | 0.00 | 89 | 1008.7 |
| 20260507020659 | 75 | 305 | 5.2 | 11.3 | 0.00 | 0.00 | 0.00 | 89 | 1008.7 |
| 20260507020556 | 75 | 300 | 5.2 | 11.3 | 0.00 | 0.00 | 0.00 | 89 | 1008.7 |
| 20260507020455 | 75 | 310 | 4.3 | 11.3 | 0.00 | 0.00 | 0.00 | 89 | 1008.6 |
| 20260507020355 | 75 | 307 | 4.3 | 11.3 | 0.00 | 0.00 | 0.00 | 89 | 1008.6 |
| 20260507020254 | 75 | 313 | 5.2 | 11.3 | 0.00 | 0.00 | 0.00 | 89 | 1008.6 |
| 20260507020154 | 75 | 327 | 5.2 | 11.3 | 0.00 | 0.00 | 0.00 | 89 | 1008.6 |
| 20260507020055 | 75 | 292 | 5.2 | 11.3 | 0.00 | 0.00 | 0.00 | 89 | 1008.6 |
| 20260507015953 | 75 | 6 | 6.1 | 11.3 | 0.00 | 0.00 | 0.00 | 89 | 1008.5 |
| 20260507015852 | 75 | 0 | 5.2 | 11.3 | 0.00 | 0.00 | 0.00 | 89 | 1008.5 |
| 20260507015753 | 75 | 3 | 4.3 | 10.4 | 0.00 | 0.00 | 0.00 | 89 | 1008.5 |
| 20260507015653 | 75 | 334 | 4.3 | 10.4 | 0.00 | 0.00 | 0.00 | 89 | 1008.5 |
| 20260507015553 | 75 | 326 | 5.2 | 10.4 | 0.00 | 0.00 | 0.00 | 89 | 1008.5 |
| 20260507015453 | 76 | 3 | 4.3 | 10.4 | 0.00 | 0.00 | 0.00 | 89 | 1008.5 |
| 20260507015353 | 76 | 244 | 4.3 | 10.4 | 0.00 | 0.00 | 0.00 | 89 | 1008.5 |
| 20260507015252 | 76 | 4 | 3.5 | 10.4 | 0.00 | 0.00 | 0.00 | 89 | 1008.5 |
| 20260507015154 | 76 | 10 | 3.5 | 10.4 | 0.00 | 0.00 | 0.00 | 89 | 1008.5 |
| 20260507015054 | 76 | 354 | 5.2 | 10.4 | 0.00 | 0.00 | 0.00 | 89 | 1008.4 |
| 20260507014952 | 76 | 353 | 4.3 | 10.4 | 0.00 | 0.00 | 0.00 | 89 | 1008.5 |
| 20260507014854 | 76 | 0 | 3.5 | 8.7 | 0.00 | 0.00 | 0.00 | 89 | 1008.5 |
| 20260507014753 | 76 | 340 | 3.5 | 8.7 | 0.00 | 0.00 | 0.00 | 89 | 1008.5 |
| 20260507014654 | 76 | 314 | 3.5 | 8.7 | 0.00 | 0.00 | 0.00 | 89 | 1008.4 |
| 20260507014553 | 76 | 340 | 3.5 | 9.6 | 0.00 | 0.00 | 0.00 | 89 | 1008.5 |
| 20260507014452 | 76 | 321 | 3.5 | 9.6 | 0.00 | 0.00 | 0.00 | 89 | 1008.4 |
| 20260507014353 | 76 | 316 | 3.5 | 9.6 | 0.00 | 0.00 | 0.00 | 89 | 1008.4 |
| 20260507014252 | 76 | 321 | 4.3 | 9.6 | 0.00 | 0.00 | 0.00 | 89 | 1008.4 |
| 20260507014152 | 76 | 319 | 4.3 | 9.6 | 0.00 | 0.00 | 0.00 | 89 | 1008.4 |
| 20260507014054 | 76 | 341 | 4.3 | 9.6 | 0.00 | 0.00 | 0.00 | 90 | 1008.4 |
| 20260507013953 | 76 | 310 | 4.3 | 9.6 | 0.00 | 0.00 | 0.00 | 90 | 1008.3 |
| 20260507013852 | 76 | 330 | 4.3 | 9.6 | 0.00 | 0.00 | 0.00 | 89 | 1008.4 |
| 20260507013754 | 76 | 338 | 5.2 | 9.6 | 0.00 | 0.00 | 0.00 | 89 | 1008.3 |
| 20260507013654 | 76 | 350 | 6.1 | 9.6 | 0.00 | 0.00 | 0.00 | 90 | 1008.3 |
| 20260507013552 | 76 | 350 | 5.2 | 7.8 | 0.00 | 0.00 | 0.00 | 90 | 1008.3 |
| 20260507013453 | 76 | 344 | 4.3 | 7.8 | 0.00 | 0.00 | 0.00 | 90 | 1008.3 |
| 20260507013353 | 76 | 323 | 4.3 | 7.8 | 0.00 | 0.00 | 0.00 | 90 | 1008.3 |
| 20260507013252 | 76 | 338 | 3.5 | 7.8 | 0.00 | 0.00 | 0.00 | 89 | 1008.3 |
| 20260507013151 | 76 | 329 | 4.3 | 7.8 | 0.00 | 0.00 | 0.00 | 89 | 1008.3 |
| 20260507013052 | 76 | 314 | 5.2 | 7.8 | 0.00 | 0.00 | 0.00 | 89 | 1008.2 |
| 20260507012955 | 76 | 337 | 5.2 | 7.8 | 0.00 | 0.00 | 0.00 | 89 | 1008.2 |
| 20260507012852 | 76 | 327 | 4.3 | 7.8 | 0.00 | 0.00 | 0.00 | 89 | 1008.2 |
| 20260507012752 | 76 | 319 | 3.5 | 7.8 | 0.00 | 0.00 | 0.00 | 89 | 1008.2 |
| 20260507012654 | 76 | 331 | 3.5 | 7.8 | 0.00 | 0.00 | 0.00 | 89 | 1008.2 |
| 20260507012553 | 76 | 319 | 3.5 | 8.7 | 0.00 | 0.00 | 0.00 | 89 | 1008.1 |
| 20260507012452 | 76 | 331 | 3.5 | 11.3 | 0.00 | 0.00 | 0.00 | 89 | 1008.0 |
| 20260507012352 | 76 | 345 | 3.5 | 11.3 | 0.00 | 0.00 | 0.00 | 89 | 1008.0 |
| 20260507012252 | 76 | 330 | 3.5 | 11.3 | 0.00 | 0.00 | 0.00 | 89 | 1008.0 |
| 20260507012151 | 76 | 316 | 3.5 | 11.3 | 0.00 | 0.00 | 0.00 | 89 | 1007.9 |
| 20260507012051 | 77 | 350 | 4.3 | 11.3 | 0.00 | 0.00 | 0.00 | 89 | 1007.9 |
| 20260507011951 | 77 | 319 | 3.5 | 11.3 | 0.00 | 0.00 | 0.00 | 89 | 1007.8 |
| 20260507011852 | 77 | 338 | 3.5 | 11.3 | 0.00 | 0.00 | 0.00 | 88 | 1007.8 |
| 20260507011752 | 77 | 337 | 4.3 | 11.3 | 0.00 | 0.00 | 0.00 | 88 | 1007.8 |
| 20260507011652 | 77 | 336 | 6.1 | 11.3 | 0.00 | 0.00 | 0.00 | 88 | 1007.7 |
| 20260507011553 | 77 | 334 | 5.2 | 11.3 | 0.00 | 0.00 | 0.00 | 88 | 1007.7 |
| 20260507011452 | 78 | 288 | 4.3 | 11.3 | 0.00 | 0.00 | 0.00 | 88 | 1007.7 |
| 20260507011352 | 78 | 310 | 6.1 | 11.3 | 0.00 | 0.00 | 0.00 | 87 | 1007.7 |
| 20260507011252 | 78 | 313 | 7.0 | 11.3 | 0.00 | 0.00 | 0.00 | 87 | 1007.7 |
| 20260507011151 | 78 | 313 | 7.8 | 11.3 | 0.00 | 0.00 | 0.00 | 87 | 1007.7 |
| 20260507011052 | 79 | 309 | 7.0 | 11.3 | 0.00 | 0.00 | 0.00 | 86 | 1007.7 |
| 20260507010951 | 79 | 320 | 7.0 | 11.3 | 0.00 | 0.00 | 0.00 | 85 | 1007.6 |
| 20260507010852 | 80 | 282 | 6.1 | 11.3 | 0.00 | 0.00 | 0.00 | 85 | 1007.7 |
| 20260507010751 | 80 | 283 | 6.1 | 11.3 | 0.00 | 0.00 | 0.00 | 85 | 1007.6 |
| 20260507010651 | 81 | 327 | 6.1 | 11.3 | 0.00 | 0.00 | 0.00 | 85 | 1007.5 |
| 20260507010553 | 82 | 300 | 7.0 | 11.3 | 0.00 | 0.00 | 0.00 | 86 | 1007.5 |
| 20260507010452 | 82 | 312 | 5.2 | 11.3 | 0.00 | 0.00 | 0.00 | 86 | 1007.5 |
| 20260507010351 | 82 | 330 | 1.7 | 6.1 | 0.00 | 0.00 | 0.00 | 86 | 1007.4 |
| 20260507010251 | 82 | 17 | 0.0 | 2.6 | 0.00 | 0.00 | 0.00 | 86 | 1007.3 |
| 20260507010153 | 82 | 114 | 0.0 | 2.6 | 0.00 | 0.00 | 0.00 | 86 | 1007.3 |
| 20260507010054 | 82 | 114 | 0.9 | 3.5 | 0.00 | 0.00 | 0.00 | 86 | 1007.3 |
| 20260507005951 | 82 | 114 | 1.7 | 3.5 | 0.00 | 0.00 | 0.00 | 86 | 1007.3 |
| 20260507005850 | 82 | 134 | 0.9 | 3.5 | 0.00 | 0.00 | 0.00 | 86 | 1007.2 |
| 20260507005748 | 82 | 141 | 0.9 | 3.5 | 0.00 | 0.00 | 0.00 | 86 | 1007.3 |
| 20260507005645 | 82 | 142 | 0.0 | 4.3 | 0.00 | 0.00 | 0.00 | 86 | 1007.2 |
| 20260507005542 | 82 | 141 | 0.0 | 4.3 | 0.00 | 0.00 | 0.00 | 86 | 1007.2 |
| 20260507005441 | 82 | 141 | 0.9 | 5.2 | 0.00 | 0.00 | 0.00 | 86 | 1007.2 |
| 20260507005339 | 82 | 141 | 1.7 | 5.2 | 0.00 | 0.00 | 0.00 | 86 | 1007.1 |
| 20260507005238 | 82 | 89 | 2.6 | 5.2 | 0.00 | 0.00 | 0.00 | 86 | 1007.0 |
| 20260507005136 | 82 | 90 | 1.7 | 5.2 | 0.00 | 0.00 | 0.00 | 86 | 1007.0 |
| 20260507005035 | 82 | 87 | 0.9 | 5.2 | 0.00 | 0.00 | 0.00 | 86 | 1007.0 |
| 20260507004934 | 82 | 85 | 1.7 | 5.2 | 0.00 | 0.00 | 0.00 | 86 | 1006.9 |
| 20260507004831 | 82 | 148 | 1.7 | 5.2 | 0.00 | 0.00 | 0.00 | 86 | 1006.9 |
| 20260507004730 | 82 | 140 | 2.6 | 5.2 | 0.00 | 0.00 | 0.00 | 86 | 1006.9 |
| 20260507004631 | 82 | 110 | 3.5 | 5.2 | 0.00 | 0.00 | 0.00 | 86 | 1007.0 |
| 20260507004533 | 82 | 109 | 4.3 | 5.2 | 0.00 | 0.00 | 0.00 | 86 | 1006.9 |
| 20260507004431 | 82 | 109 | 3.5 | 4.3 | 0.00 | 0.00 | 0.00 | 86 | 1006.9 |
| 20260507004331 | 82 | 123 | 1.7 | 4.3 | 0.00 | 0.00 | 0.00 | 86 | 1006.9 |
| 20260507004230 | 82 | 114 | 1.7 | 4.3 | 0.00 | 0.00 | 0.00 | 86 | 1006.9 |
| 20260507004132 | 82 | 106 | 1.7 | 4.3 | 0.00 | 0.00 | 0.00 | 86 | 1006.9 |
| 20260507004032 | 83 | 135 | 1.7 | 4.3 | 0.00 | 0.00 | 0.00 | 86 | 1006.9 |
| 20260507003931 | 83 | 117 | 1.7 | 4.3 | 0.00 | 0.00 | 0.00 | 86 | 1006.9 |
| 20260507003833 | 83 | 154 | 2.6 | 4.3 | 0.00 | 0.00 | 0.00 | 86 | 1006.8 |
| 20260507003732 | 83 | 124 | 2.6 | 4.3 | 0.00 | 0.00 | 0.00 | 86 | 1006.8 |
| 20260507003631 | 83 | 120 | 1.7 | 4.3 | 0.00 | 0.00 | 0.00 | 86 | 1006.8 |
| 20260507003530 | 83 | 151 | 0.9 | 4.3 | 0.00 | 0.00 | 0.00 | 86 | 1006.8 |
| 20260507003431 | 83 | 97 | 1.7 | 4.3 | 0.00 | 0.00 | 0.00 | 86 | 1006.8 |
| 20260507003331 | 83 | 104 | 1.7 | 4.3 | 0.00 | 0.00 | 0.00 | 86 | 1006.8 |
| 20260507003231 | 83 | 102 | 1.7 | 4.3 | 0.00 | 0.00 | 0.00 | 86 | 1006.8 |
| 20260507003133 | 83 | 100 | 2.6 | 4.3 | 0.00 | 0.00 | 0.00 | 86 | 1006.8 |
| 20260507003032 | 83 | 78 | 2.6 | 4.3 | 0.00 | 0.00 | 0.00 | 86 | 1006.7 |
| 20260507002929 | 83 | 76 | 0.9 | 4.3 | 0.00 | 0.00 | 0.00 | 86 | 1006.7 |
| 20260507002828 | 83 | 68 | 0.0 | 4.3 | 0.00 | 0.00 | 0.00 | 86 | 1006.7 |
| 20260507002723 | 82 | 59 | 0.0 | 4.3 | 0.00 | 0.00 | 0.00 | 86 | 1006.7 |
| 20260507002621 | 82 | 30 | 0.9 | 4.3 | 0.00 | 0.00 | 0.00 | 86 | 1006.8 |
| 20260507002520 | 82 | 30 | 2.6 | 4.3 | 0.00 | 0.00 | 0.00 | 86 | 1006.7 |
| 20260507002416 | 82 | 48 | 2.6 | 4.3 | 0.00 | 0.00 | 0.00 | 86 | 1006.7 |
| 20260507002315 | 82 | 48 | 1.7 | 4.3 | 0.00 | 0.00 | 0.00 | 86 | 1006.7 |
| 20260507002215 | 82 | 31 | 0.0 | 0.0 | 0.00 | 0.00 | 0.00 | 86 | 1006.7 |
| 20260507002112 | 82 | 76 | 0.0 | 0.9 | 0.00 | 0.00 | 0.00 | 86 | 1006.7 |
| 20260507002011 | 82 | 76 | 0.0 | 0.9 | 0.00 | 0.00 | 0.00 | 86 | 1006.7 |
| 20260507001909 | 82 | 76 | 0.0 | 1.7 | 0.00 | 0.00 | 0.00 | 86 | 1006.8 |
| 20260507001807 | 82 | 76 | 0.0 | 1.7 | 0.00 | 0.00 | 0.00 | 86 | 1006.7 |
| 20260507001706 | 82 | 86 | 0.0 | 3.5 | 0.00 | 0.00 | 0.00 | 86 | 1006.7 |
| 20260507001604 | 82 | 86 | 0.0 | 4.3 | 0.00 | 0.00 | 0.00 | 86 | 1006.7 |
| 20260507001505 | 82 | 86 | 0.0 | 4.3 | 0.00 | 0.00 | 0.00 | 86 | 1006.7 |
| 20260507001404 | 83 | 86 | 0.0 | 4.3 | 0.00 | 0.00 | 0.00 | 86 | 1006.7 |
| 20260507001302 | 83 | 86 | 0.0 | 4.3 | 0.00 | 0.00 | 0.00 | 86 | 1006.6 |
| 20260507001203 | 83 | 86 | 0.0 | 4.3 | 0.00 | 0.00 | 0.00 | 85 | 1006.6 |
| 20260507001102 | 83 | 83 | 0.9 | 4.3 | 0.00 | 0.00 | 0.00 | 85 | 1006.6 |
| 20260507001002 | 83 | 79 | 0.9 | 4.3 | 0.00 | 0.00 | 0.00 | 85 | 1006.6 |
| 20260507000902 | 83 | 79 | 1.7 | 4.3 | 0.00 | 0.00 | 0.00 | 85 | 1006.6 |
| 20260507000804 | 83 | 80 | 2.6 | 4.3 | 0.00 | 0.00 | 0.00 | 85 | 1006.7 |
| 20260507000703 | 83 | 76 | 2.6 | 4.3 | 0.00 | 0.00 | 0.00 | 85 | 1006.7 |
| 20260507000602 | 83 | 94 | 1.7 | 4.3 | 0.00 | 0.00 | 0.00 | 84 | 1006.6 |
| 20260507000503 | 83 | 44 | 1.7 | 4.3 | 0.00 | 0.00 | 0.00 | 84 | 1006.5 |
| 20260507000402 | 84 | 25 | 2.6 | 4.3 | 0.00 | 0.00 | 0.00 | 83 | 1006.4 |
| 20260507000306 | 84 | 31 | 1.7 | 4.3 | 0.00 | 0.00 | 0.00 | 83 | 1006.4 |
| 20260507000204 | 84 | 0 | 1.7 | 4.3 | 0.00 | 0.00 | 0.00 | 83 | 1006.5 |
| 20260507000002 | 84 | 0 | 2.6 | 4.3 | 0.00 | 0.00 | 0.00 | 82 | 1006.6 |
| 20260506235903 | 85 | 8 | 2.6 | 7.8 | 0.00 | 0.00 | 0.00 | 82 | 1006.6 |
| 20260506235804 | 85 | 4 | 1.7 | 7.8 | 0.00 | 0.00 | 0.00 | 81 | 1006.6 |
| 20260506235703 | 85 | 327 | 0.9 | 7.8 | 0.00 | 0.00 | 0.00 | 81 | 1006.6 |
| 20260506235603 | 85 | 279 | 0.9 | 7.8 | 0.00 | 0.00 | 0.00 | 81 | 1006.6 |
| 20260506235502 | 85 | 279 | 0.9 | 7.8 | 0.00 | 0.00 | 0.00 | 81 | 1006.6 |
| 20260506235402 | 85 | 92 | 0.0 | 7.8 | 0.00 | 0.00 | 0.00 | 81 | 1006.5 |
| 20260506235306 | 85 | 83 | 0.9 | 7.8 | 0.00 | 0.00 | 0.00 | 81 | 1006.4 |
| 20260506235201 | 85 | 83 | 1.7 | 8.7 | 0.00 | 0.00 | 0.00 | 80 | 1006.4 |
| 20260506235103 | 85 | 178 | 3.5 | 8.7 | 0.00 | 0.00 | 0.00 | 80 | 1006.4 |
| 20260506235003 | 85 | 189 | 4.3 | 8.7 | 0.00 | 0.00 | 0.00 | 81 | 1006.5 |
| 20260506234904 | 85 | 190 | 3.5 | 8.7 | 0.00 | 0.00 | 0.00 | 80 | 1006.4 |
| 20260506234803 | 85 | 166 | 3.5 | 8.7 | 0.00 | 0.00 | 0.00 | 80 | 1006.5 |
| 20260506234703 | 85 | 228 | 2.6 | 8.7 | 0.00 | 0.00 | 0.00 | 81 | 1006.5 |
| 20260506234602 | 85 | 185 | 3.5 | 8.7 | 0.00 | 0.00 | 0.00 | 80 | 1006.5 |
| 20260506234502 | 85 | 197 | 4.3 | 8.7 | 0.00 | 0.00 | 0.00 | 80 | 1006.5 |
| 20260506234403 | 85 | 200 | 5.2 | 8.7 | 0.00 | 0.00 | 0.00 | 80 | 1006.4 |
| 20260506234301 | 85 | 142 | 3.5 | 8.7 | 0.00 | 0.00 | 0.00 | 80 | 1006.4 |
| 20260506234201 | 85 | 164 | 2.6 | 8.7 | 0.00 | 0.00 | 0.00 | 80 | 1006.4 |
| 20260506234103 | 85 | 200 | 3.5 | 8.7 | 0.00 | 0.00 | 0.00 | 80 | 1006.3 |
| 20260506234003 | 85 | 157 | 4.3 | 8.7 | 0.00 | 0.00 | 0.00 | 80 | 1006.4 |
| 20260506233902 | 85 | 227 | 3.5 | 8.7 | 0.00 | 0.00 | 0.00 | 80 | 1006.4 |
| 20260506233802 | 85 | 161 | 4.3 | 8.7 | 0.00 | 0.00 | 0.00 | 80 | 1006.4 |
| 20260506233703 | 85 | 172 | 4.3 | 8.7 | 0.00 | 0.00 | 0.00 | 80 | 1006.5 |
| 20260506233602 | 85 | 188 | 3.5 | 7.8 | 0.00 | 0.00 | 0.00 | 80 | 1006.4 |
| 20260506233502 | 85 | 206 | 3.5 | 7.8 | 0.00 | 0.00 | 0.00 | 80 | 1006.4 |
| 20260506233403 | 85 | 196 | 3.5 | 7.8 | 0.00 | 0.00 | 0.00 | 80 | 1006.5 |
| 20260506233302 | 85 | 200 | 3.5 | 8.7 | 0.00 | 0.00 | 0.00 | 80 | 1006.4 |
| 20260506233201 | 85 | 69 | 3.5 | 8.7 | 0.00 | 0.00 | 0.00 | 80 | 1006.4 |
| 20260506233104 | 85 | 197 | 4.3 | 9.6 | 0.00 | 0.00 | 0.00 | 80 | 1006.4 |
| 20260506233004 | 85 | 188 | 3.5 | 9.6 | 0.00 | 0.00 | 0.00 | 80 | 1006.3 |
| 20260506232902 | 85 | 154 | 2.6 | 9.6 | 0.00 | 0.00 | 0.00 | 80 | 1006.3 |
| 20260506232802 | 85 | 159 | 2.6 | 9.6 | 0.00 | 0.00 | 0.00 | 80 | 1006.2 |
| 20260506232704 | 85 | 135 | 3.5 | 9.6 | 0.00 | 0.00 | 0.00 | 80 | 1006.2 |
| 20260506232603 | 85 | 173 | 3.5 | 9.6 | 0.00 | 0.00 | 0.00 | 80 | 1006.2 |
| 20260506232503 | 85 | 155 | 4.3 | 9.6 | 0.00 | 0.00 | 0.00 | 80 | 1006.2 |
| 20260506232403 | 85 | 161 | 4.3 | 9.6 | 0.00 | 0.00 | 0.00 | 80 | 1006.2 |
| 20260506232306 | 85 | 176 | 5.2 | 9.6 | 0.00 | 0.00 | 0.00 | 79 | 1006.2 |
| 20260506232203 | 85 | 128 | 6.1 | 9.6 | 0.00 | 0.00 | 0.00 | 79 | 1006.2 |
| 20260506232102 | 86 | 203 | 5.2 | 9.6 | 0.00 | 0.00 | 0.00 | 79 | 1006.2 |
| 20260506232004 | 86 | 188 | 5.2 | 9.6 | 0.00 | 0.00 | 0.00 | 79 | 1006.2 |
| 20260506231902 | 86 | 166 | 5.2 | 8.7 | 0.00 | 0.00 | 0.00 | 79 | 1006.3 |
| 20260506231803 | 86 | 189 | 3.5 | 8.7 | 0.00 | 0.00 | 0.00 | 79 | 1006.2 |
| 20260506231704 | 86 | 197 | 3.5 | 8.7 | 0.00 | 0.00 | 0.00 | 79 | 1006.2 |
| 20260506231602 | 86 | 144 | 4.3 | 8.7 | 0.00 | 0.00 | 0.00 | 79 | 1006.3 |
| 20260506231504 | 86 | 168 | 4.3 | 8.7 | 0.00 | 0.00 | 0.00 | 79 | 1006.1 |
| 20260506231402 | 86 | 210 | 3.5 | 6.1 | 0.00 | 0.00 | 0.00 | 79 | 1006.2 |
| 20260506231302 | 86 | 154 | 3.5 | 6.1 | 0.00 | 0.00 | 0.00 | 78 | 1006.2 |
| 20260506231202 | 86 | 193 | 2.6 | 6.1 | 0.00 | 0.00 | 0.00 | 78 | 1006.2 |
| 20260506231102 | 86 | 140 | 1.7 | 6.1 | 0.00 | 0.00 | 0.00 | 78 | 1006.2 |
| 20260506231004 | 86 | 173 | 3.5 | 6.1 | 0.00 | 0.00 | 0.00 | 78 | 1006.2 |
| 20260506230903 | 86 | 130 | 4.3 | 6.1 | 0.00 | 0.00 | 0.00 | 78 | 1006.1 |
| 20260506230804 | 86 | 188 | 2.6 | 6.1 | 0.00 | 0.00 | 0.00 | 78 | 1006.1 |
| 20260506230702 | 87 | 192 | 1.7 | 5.2 | 0.00 | 0.00 | 0.00 | 78 | 1006.1 |
| 20260506230602 | 87 | 173 | 1.7 | 7.8 | 0.00 | 0.00 | 0.00 | 78 | 1006.1 |
| 20260506230502 | 87 | 107 | 2.6 | 7.8 | 0.00 | 0.00 | 0.00 | 78 | 1006.1 |
| 20260506230403 | 87 | 188 | 2.6 | 8.7 | 0.00 | 0.00 | 0.00 | 77 | 1006.1 |
| 20260506230302 | 87 | 182 | 3.5 | 8.7 | 0.00 | 0.00 | 0.00 | 77 | 1006.1 |
| 20260506230202 | 87 | 202 | 2.6 | 8.7 | 0.00 | 0.00 | 0.00 | 77 | 1006.1 |
| 20260506230103 | 87 | 214 | 2.6 | 8.7 | 0.00 | 0.00 | 0.00 | 77 | 1006.2 |
| 20260506230003 | 87 | 110 | 3.5 | 8.7 | 0.00 | 0.00 | 0.00 | 77 | 1006.2 |
| 20260506225902 | 87 | 188 | 3.5 | 8.7 | 0.00 | 0.00 | 0.00 | 77 | 1006.2 |
| 20260506225801 | 87 | 199 | 4.3 | 8.7 | 0.00 | 0.00 | 0.00 | 76 | 1006.2 |
| 20260506225702 | 87 | 200 | 4.3 | 8.7 | 0.00 | 0.00 | 0.00 | 77 | 1006.1 |
| 20260506225603 | 87 | 99 | 4.3 | 8.7 | 0.00 | 0.00 | 0.00 | 76 | 1006.2 |
| 20260506225502 | 87 | 175 | 3.5 | 8.7 | 0.00 | 0.00 | 0.00 | 77 | 1006.1 |
| 20260506225402 | 87 | 193 | 3.5 | 8.7 | 0.00 | 0.00 | 0.00 | 77 | 1006.1 |
| 20260506225305 | 87 | 130 | 3.5 | 8.7 | 0.00 | 0.00 | 0.00 | 77 | 1006.1 |
| 20260506225202 | 87 | 106 | 2.6 | 8.7 | 0.00 | 0.00 | 0.00 | 77 | 1006.1 |
| 20260506225102 | 87 | 111 | 2.6 | 8.7 | 0.00 | 0.00 | 0.00 | 77 | 1006.2 |
| 20260506225004 | 87 | 145 | 3.5 | 8.7 | 0.00 | 0.00 | 0.00 | 77 | 1006.2 |
| 20260506224902 | 87 | 165 | 3.5 | 9.6 | 0.00 | 0.00 | 0.00 | 77 | 1006.2 |
| 20260506224802 | 87 | 128 | 3.5 | 9.6 | 0.00 | 0.00 | 0.00 | 78 | 1006.2 |
| 20260506224703 | 87 | 185 | 4.3 | 9.6 | 0.00 | 0.00 | 0.00 | 77 | 1006.2 |
| 20260506224604 | 86 | 169 | 5.2 | 9.6 | 0.00 | 0.00 | 0.00 | 77 | 1006.1 |
| 20260506224503 | 87 | 185 | 5.2 | 9.6 | 0.00 | 0.00 | 0.00 | 77 | 1006.2 |
| 20260506224402 | 87 | 210 | 5.2 | 9.6 | 0.00 | 0.00 | 0.00 | 77 | 1006.1 |
| 20260506224302 | 87 | 210 | 5.2 | 9.6 | 0.00 | 0.00 | 0.00 | 77 | 1006.2 |
| 20260506224202 | 87 | 212 | 5.2 | 9.6 | 0.00 | 0.00 | 0.00 | 77 | 1006.1 |
| 20260506224102 | 87 | 192 | 5.2 | 9.6 | 0.00 | 0.00 | 0.00 | 76 | 1006.1 |
| 20260506224003 | 87 | 230 | 5.2 | 9.6 | 0.00 | 0.00 | 0.00 | 76 | 1006.1 |
| 20260506223904 | 87 | 183 | 5.2 | 9.6 | 0.00 | 0.00 | 0.00 | 76 | 1006.2 |
| 20260506223802 | 87 | 193 | 4.3 | 9.6 | 0.00 | 0.00 | 0.00 | 77 | 1006.1 |
| 20260506223703 | 87 | 203 | 5.2 | 9.6 | 0.00 | 0.00 | 0.00 | 77 | 1006.1 |
| 20260506223604 | 87 | 172 | 5.2 | 9.6 | 0.00 | 0.00 | 0.00 | 78 | 1006.1 |
| 20260506223503 | 87 | 188 | 4.3 | 11.3 | 0.00 | 0.00 | 0.00 | 78 | 1006.1 |
| 20260506223402 | 86 | 189 | 3.5 | 11.3 | 0.00 | 0.00 | 0.00 | 78 | 1006.2 |
| 20260506223302 | 86 | 100 | 4.3 | 11.3 | 0.00 | 0.00 | 0.00 | 78 | 1006.1 |
| 20260506223202 | 86 | 219 | 4.3 | 11.3 | 0.00 | 0.00 | 0.00 | 79 | 1006.2 |
| 20260506223102 | 86 | 171 | 2.6 | 11.3 | 0.00 | 0.00 | 0.00 | 79 | 1006.1 |
| 20260506223002 | 86 | 134 | 3.5 | 11.3 | 0.00 | 0.00 | 0.00 | 79 | 1006.1 |
| 20260506222905 | 86 | 179 | 4.3 | 11.3 | 0.00 | 0.00 | 0.00 | 79 | 1006.1 |
| 20260506222802 | 86 | 131 | 3.5 | 11.3 | 0.00 | 0.00 | 0.00 | 79 | 1006.2 |
| 20260506222703 | 86 | 188 | 4.3 | 11.3 | 0.00 | 0.00 | 0.00 | 79 | 1006.1 |
| 20260506222602 | 86 | 124 | 5.2 | 11.3 | 0.00 | 0.00 | 0.00 | 79 | 1006.1 |
| 20260506222503 | 86 | 166 | 4.3 | 8.7 | 0.00 | 0.00 | 0.00 | 79 | 1006.1 |
| 20260506222402 | 86 | 250 | 3.5 | 8.7 | 0.00 | 0.00 | 0.00 | 79 | 1006.1 |
| 20260506222301 | 86 | 182 | 2.6 | 8.7 | 0.00 | 0.00 | 0.00 | 79 | 1006.0 |
| 20260506222202 | 86 | 134 | 2.6 | 8.7 | 0.00 | 0.00 | 0.00 | 79 | 1006.0 |
| 20260506222102 | 86 | 195 | 3.5 | 8.7 | 0.00 | 0.00 | 0.00 | 79 | 1006.0 |
| 20260506222003 | 86 | 128 | 4.3 | 8.7 | 0.00 | 0.00 | 0.00 | 79 | 1006.1 |
| 20260506221903 | 86 | 164 | 4.3 | 8.7 | 0.00 | 0.00 | 0.00 | 79 | 1006.0 |
| 20260506221802 | 86 | 130 | 3.5 | 8.7 | 0.00 | 0.00 | 0.00 | 79 | 1006.1 |
| 20260506221703 | 86 | 83 | 3.5 | 9.6 | 0.00 | 0.00 | 0.00 | 79 | 1006.0 |
| 20260506221602 | 86 | 80 | 4.3 | 9.6 | 0.00 | 0.00 | 0.00 | 78 | 1006.0 |
| 20260506221505 | 86 | 162 | 4.3 | 9.6 | 0.00 | 0.00 | 0.00 | 78 | 1006.1 |
| 20260506221401 | 86 | 162 | 3.5 | 9.6 | 0.00 | 0.00 | 0.00 | 79 | 1006.0 |
| 20260506221302 | 86 | 162 | 3.5 | 9.6 | 0.00 | 0.00 | 0.00 | 79 | 1006.0 |
| 20260506221203 | 86 | 125 | 2.6 | 9.6 | 0.00 | 0.00 | 0.00 | 79 | 1006.0 |
| 20260506221103 | 86 | 159 | 3.5 | 9.6 | 0.00 | 0.00 | 0.00 | 79 | 1006.0 |
| 20260506221004 | 86 | 175 | 5.2 | 9.6 | 0.00 | 0.00 | 0.00 | 79 | 1005.9 |
| 20260506220904 | 86 | 165 | 5.2 | 9.6 | 0.00 | 0.00 | 0.00 | 78 | 1005.9 |
| 20260506220802 | 86 | 144 | 4.3 | 9.6 | 0.00 | 0.00 | 0.00 | 78 | 1006.0 |
| 20260506220702 | 86 | 116 | 2.6 | 7.8 | 0.00 | 0.00 | 0.00 | 78 | 1005.9 |
| 20260506220602 | 86 | 125 | 3.5 | 9.6 | 0.00 | 0.00 | 0.00 | 78 | 1006.0 |
| 20260506220503 | 86 | 173 | 5.2 | 9.6 | 0.00 | 0.00 | 0.00 | 78 | 1006.0 |
| 20260506220402 | 87 | 172 | 4.3 | 9.6 | 0.00 | 0.00 | 0.00 | 78 | 1006.0 |
| 20260506220303 | 87 | 157 | 3.5 | 9.6 | 0.00 | 0.00 | 0.00 | 78 | 1006.0 |
| 20260506220204 | 87 | 149 | 4.3 | 9.6 | 0.00 | 0.00 | 0.00 | 78 | 1006.0 |
| 20260506220002 | 87 | 118 | 5.2 | 9.6 | 0.00 | 0.00 | 0.00 | 77 | 1006.0 |
| 20260506215902 | 87 | 118 | 4.3 | 9.6 | 0.00 | 0.00 | 0.00 | 77 | 1005.9 |
| 20260506215803 | 87 | 199 | 4.3 | 9.6 | 0.00 | 0.00 | 0.00 | 77 | 1006.0 |
| 20260506215702 | 87 | 140 | 3.5 | 9.6 | 0.00 | 0.00 | 0.00 | 76 | 1006.0 |
| 20260506215602 | 87 | 189 | 2.6 | 11.3 | 0.00 | 0.00 | 0.00 | 76 | 1005.9 |
| 20260506215504 | 87 | 166 | 4.3 | 11.3 | 0.00 | 0.00 | 0.00 | 76 | 1005.9 |
| 20260506215402 | 87 | 189 | 4.3 | 11.3 | 0.00 | 0.00 | 0.00 | 76 | 1006.0 |
| 20260506215301 | 87 | 189 | 3.5 | 11.3 | 0.00 | 0.00 | 0.00 | 76 | 1006.0 |
| 20260506215201 | 87 | 179 | 3.5 | 11.3 | 0.00 | 0.00 | 0.00 | 76 | 1005.9 |
| 20260506215103 | 87 | 154 | 3.5 | 11.3 | 0.00 | 0.00 | 0.00 | 76 | 1005.9 |
| 20260506215002 | 87 | 240 | 3.5 | 11.3 | 0.00 | 0.00 | 0.00 | 76 | 1006.0 |
| 20260506214902 | 87 | 189 | 3.5 | 11.3 | 0.00 | 0.00 | 0.00 | 76 | 1006.0 |
| 20260506214804 | 87 | 195 | 5.2 | 11.3 | 0.00 | 0.00 | 0.00 | 76 | 1005.9 |
| 20260506214702 | 87 | 203 | 7.8 | 11.3 | 0.00 | 0.00 | 0.00 | 76 | 1005.9 |
| 20260506214603 | 87 | 195 | 6.1 | 10.4 | 0.00 | 0.00 | 0.00 | 76 | 1006.0 |
| 20260506214503 | 87 | 212 | 5.2 | 8.7 | 0.00 | 0.00 | 0.00 | 76 | 1006.0 |
| 20260506214404 | 87 | 197 | 5.2 | 8.7 | 0.00 | 0.00 | 0.00 | 76 | 1006.0 |
| 20260506214301 | 87 | 213 | 6.1 | 8.7 | 0.00 | 0.00 | 0.00 | 76 | 1006.0 |
| 20260506214202 | 87 | 227 | 4.3 | 8.7 | 0.00 | 0.00 | 0.00 | 76 | 1006.0 |
| 20260506214103 | 87 | 199 | 3.5 | 8.7 | 0.00 | 0.00 | 0.00 | 77 | 1006.0 |
| 20260506214002 | 87 | 227 | 4.3 | 8.7 | 0.00 | 0.00 | 0.00 | 77 | 1006.0 |
| 20260506213902 | 87 | 241 | 5.2 | 8.7 | 0.00 | 0.00 | 0.00 | 76 | 1006.0 |
| 20260506213803 | 87 | 250 | 5.2 | 8.7 | 0.00 | 0.00 | 0.00 | 76 | 1006.0 |
| 20260506213702 | 87 | 240 | 5.2 | 8.7 | 0.00 | 0.00 | 0.00 | 76 | 1006.0 |
| 20260506213602 | 87 | 195 | 4.3 | 8.7 | 0.00 | 0.00 | 0.00 | 77 | 1006.0 |
| 20260506213502 | 87 | 175 | 5.2 | 8.7 | 0.00 | 0.00 | 0.00 | 77 | 1005.9 |
| 20260506213402 | 87 | 176 | 4.3 | 8.7 | 0.00 | 0.00 | 0.00 | 77 | 1005.9 |
| 20260506213302 | 87 | 241 | 3.5 | 10.4 | 0.00 | 0.00 | 0.00 | 77 | 1005.9 |
| 20260506213202 | 87 | 192 | 3.5 | 10.4 | 0.00 | 0.00 | 0.00 | 77 | 1005.9 |
| 20260506213103 | 87 | 169 | 3.5 | 10.4 | 0.00 | 0.00 | 0.00 | 77 | 1005.9 |
| 20260506213004 | 87 | 131 | 2.6 | 10.4 | 0.00 | 0.00 | 0.00 | 77 | 1006.0 |
| 20260506212901 | 87 | 80 | 3.5 | 10.4 | 0.00 | 0.00 | 0.00 | 77 | 1006.0 |
| 20260506212803 | 87 | 186 | 5.2 | 10.4 | 0.00 | 0.00 | 0.00 | 77 | 1006.0 |
| 20260506212704 | 87 | 193 | 5.2 | 10.4 | 0.00 | 0.00 | 0.00 | 76 | 1006.0 |
| 20260506212601 | 87 | 224 | 5.2 | 10.4 | 0.00 | 0.00 | 0.00 | 76 | 1006.1 |
| 20260506212502 | 87 | 217 | 5.2 | 10.4 | 0.00 | 0.00 | 0.00 | 75 | 1006.2 |
| 20260506212403 | 87 | 182 | 5.2 | 10.4 | 0.00 | 0.00 | 0.00 | 76 | 1006.1 |
| 20260506212305 | 88 | 173 | 4.3 | 10.4 | 0.00 | 0.00 | 0.00 | 76 | 1006.2 |
| 20260506212202 | 88 | 173 | 3.5 | 6.1 | 0.00 | 0.00 | 0.00 | 76 | 1006.2 |
| 20260506212103 | 88 | 175 | 3.5 | 6.1 | 0.00 | 0.00 | 0.00 | 77 | 1006.3 |
| 20260506212003 | 88 | 186 | 4.3 | 8.7 | 0.00 | 0.00 | 0.00 | 77 | 1006.2 |
| 20260506211901 | 88 | 173 | 3.5 | 8.7 | 0.00 | 0.00 | 0.00 | 77 | 1006.2 |
| 20260506211802 | 87 | 159 | 3.5 | 9.6 | 0.00 | 0.00 | 0.00 | 78 | 1006.1 |
| 20260506211703 | 87 | 135 | 3.5 | 9.6 | 0.00 | 0.00 | 0.00 | 78 | 1006.2 |
| 20260506211602 | 87 | 149 | 3.5 | 10.4 | 0.00 | 0.00 | 0.00 | 78 | 1006.1 |
| 20260506211502 | 87 | 207 | 2.6 | 10.4 | 0.00 | 0.00 | 0.00 | 78 | 1006.1 |
| 20260506211403 | 87 | 51 | 3.5 | 10.4 | 0.00 | 0.00 | 0.00 | 78 | 1006.2 |
| 20260506211302 | 87 | 120 | 3.5 | 10.4 | 0.00 | 0.00 | 0.00 | 78 | 1006.2 |
| 20260506211202 | 87 | 133 | 3.5 | 10.4 | 0.00 | 0.00 | 0.00 | 77 | 1006.2 |
| 20260506211102 | 87 | 138 | 5.2 | 10.4 | 0.00 | 0.00 | 0.00 | 77 | 1006.2 |
| 20260506211004 | 87 | 148 | 5.2 | 10.4 | 0.00 | 0.00 | 0.00 | 77 | 1006.3 |
| 20260506210902 | 87 | 128 | 5.2 | 10.4 | 0.00 | 0.00 | 0.00 | 76 | 1006.2 |
| 20260506210802 | 87 | 85 | 5.2 | 10.4 | 0.00 | 0.00 | 0.00 | 76 | 1006.2 |
| 20260506210703 | 88 | 182 | 5.2 | 10.4 | 0.00 | 0.00 | 0.00 | 76 | 1006.3 |
| 20260506210603 | 88 | 157 | 4.3 | 10.4 | 0.00 | 0.00 | 0.00 | 76 | 1006.3 |
| 20260506210503 | 88 | 227 | 4.3 | 10.4 | 0.00 | 0.00 | 0.00 | 76 | 1006.2 |
| 20260506210403 | 88 | 197 | 3.5 | 10.4 | 0.00 | 0.00 | 0.00 | 76 | 1006.3 |
| 20260506210304 | 88 | 233 | 4.3 | 10.4 | 0.00 | 0.00 | 0.00 | 76 | 1006.2 |
| 20260506210202 | 88 | 233 | 3.5 | 10.4 | 0.00 | 0.00 | 0.00 | 76 | 1006.2 |
| 20260506210004 | 87 | 85 | 4.3 | 10.4 | 0.00 | 0.00 | 0.00 | 76 | 1006.3 |
| 20260506205902 | 87 | 135 | 4.3 | 10.4 | 0.00 | 0.00 | 0.00 | 76 | 1006.3 |
| 20260506205802 | 87 | 254 | 4.3 | 9.6 | 0.00 | 0.00 | 0.00 | 76 | 1006.3 |
| 20260506205703 | 87 | 188 | 5.2 | 9.6 | 0.00 | 0.00 | 0.00 | 76 | 1006.3 |
| 20260506205602 | 88 | 149 | 4.3 | 8.7 | 0.00 | 0.00 | 0.00 | 76 | 1006.4 |
| 20260506205502 | 87 | 202 | 4.3 | 8.7 | 0.00 | 0.00 | 0.00 | 76 | 1006.3 |
| 20260506205401 | 87 | 118 | 5.2 | 8.7 | 0.00 | 0.00 | 0.00 | 76 | 1006.3 |
| 20260506205306 | 88 | 116 | 5.2 | 7.8 | 0.00 | 0.00 | 0.00 | 76 | 1006.3 |
| 20260506205202 | 88 | 130 | 4.3 | 7.8 | 0.00 | 0.00 | 0.00 | 76 | 1006.3 |
| 20260506205102 | 88 | 131 | 3.5 | 7.8 | 0.00 | 0.00 | 0.00 | 76 | 1006.3 |
| 20260506205004 | 88 | 92 | 4.3 | 7.8 | 0.00 | 0.00 | 0.00 | 76 | 1006.3 |
| 20260506204903 | 88 | 176 | 4.3 | 7.8 | 0.00 | 0.00 | 0.00 | 76 | 1006.4 |
| 20260506204801 | 87 | 185 | 3.5 | 7.8 | 0.00 | 0.00 | 0.00 | 77 | 1006.4 |
| 20260506204703 | 87 | 176 | 3.5 | 7.8 | 0.00 | 0.00 | 0.00 | 77 | 1006.4 |
| 20260506204603 | 87 | 189 | 4.3 | 7.8 | 0.00 | 0.00 | 0.00 | 77 | 1006.4 |
| 20260506204503 | 87 | 238 | 4.3 | 7.8 | 0.00 | 0.00 | 0.00 | 78 | 1006.4 |
| 20260506204403 | 87 | 173 | 3.5 | 7.8 | 0.00 | 0.00 | 0.00 | 79 | 1006.4 |
| 20260506204303 | 87 | 125 | 3.5 | 7.8 | 0.00 | 0.00 | 0.00 | 79 | 1006.4 |
| 20260506204202 | 86 | 144 | 3.5 | 7.8 | 0.00 | 0.00 | 0.00 | 79 | 1006.5 |
| 20260506204102 | 86 | 161 | 3.5 | 7.8 | 0.00 | 0.00 | 0.00 | 79 | 1006.5 |
| 20260506204003 | 86 | 121 | 3.5 | 9.6 | 0.00 | 0.00 | 0.00 | 80 | 1006.6 |
| 20260506203903 | 85 | 255 | 3.5 | 9.6 | 0.00 | 0.00 | 0.00 | 80 | 1006.5 |
| 20260506203803 | 85 | 145 | 3.5 | 9.6 | 0.00 | 0.00 | 0.00 | 80 | 1006.5 |
| 20260506203702 | 85 | 127 | 4.3 | 9.6 | 0.00 | 0.00 | 0.00 | 80 | 1006.6 |
| 20260506203603 | 85 | 142 | 4.3 | 9.6 | 0.00 | 0.00 | 0.00 | 80 | 1006.5 |
| 20260506203502 | 85 | 135 | 3.5 | 9.6 | 0.00 | 0.00 | 0.00 | 81 | 1006.6 |
| 20260506203402 | 85 | 200 | 3.5 | 9.6 | 0.00 | 0.00 | 0.00 | 81 | 1006.5 |
| 20260506203303 | 85 | 141 | 3.5 | 9.6 | 0.00 | 0.00 | 0.00 | 81 | 1006.6 |
| 20260506203203 | 85 | 199 | 4.3 | 9.6 | 0.00 | 0.00 | 0.00 | 81 | 1006.6 |
| 20260506203102 | 85 | 175 | 3.5 | 9.6 | 0.00 | 0.00 | 0.00 | 81 | 1006.6 |
| 20260506203002 | 85 | 195 | 2.6 | 9.6 | 0.00 | 0.00 | 0.00 | 81 | 1006.6 |
| 20260506202903 | 85 | 164 | 2.6 | 10.4 | 0.00 | 0.00 | 0.00 | 81 | 1006.6 |
| 20260506202803 | 84 | 171 | 2.6 | 10.4 | 0.00 | 0.00 | 0.00 | 81 | 1006.7 |
| 20260506202702 | 84 | 179 | 2.6 | 10.4 | 0.00 | 0.00 | 0.00 | 81 | 1006.7 |
| 20260506202603 | 84 | 248 | 1.7 | 10.4 | 0.00 | 0.00 | 0.00 | 81 | 1006.7 |
| 20260506202502 | 84 | 169 | 3.5 | 10.4 | 0.00 | 0.00 | 0.00 | 81 | 1006.7 |
| 20260506202402 | 84 | 154 | 4.3 | 10.4 | 0.00 | 0.00 | 0.00 | 81 | 1006.7 |
| 20260506202306 | 84 | 147 | 3.5 | 10.4 | 0.00 | 0.00 | 0.00 | 81 | 1006.7 |
| 20260506202202 | 84 | 102 | 3.5 | 10.4 | 0.00 | 0.00 | 0.00 | 80 | 1006.6 |
| 20260506202103 | 84 | 271 | 5.2 | 10.4 | 0.00 | 0.00 | 0.00 | 80 | 1006.7 |
| 20260506202002 | 85 | 151 | 6.1 | 10.4 | 0.00 | 0.00 | 0.00 | 80 | 1006.7 |
| 20260506201902 | 85 | 168 | 5.2 | 10.4 | 0.00 | 0.00 | 0.00 | 80 | 1006.6 |
| 20260506201801 | 85 | 186 | 3.5 | 9.6 | 0.00 | 0.00 | 0.00 | 79 | 1006.7 |
| 20260506201702 | 85 | 131 | 5.2 | 9.6 | 0.00 | 0.00 | 0.00 | 79 | 1006.7 |
| 20260506201604 | 85 | 171 | 5.2 | 9.6 | 0.00 | 0.00 | 0.00 | 79 | 1006.7 |
| 20260506201503 | 85 | 135 | 5.2 | 9.6 | 0.00 | 0.00 | 0.00 | 79 | 1006.8 |
| 20260506201403 | 85 | 158 | 4.3 | 9.6 | 0.00 | 0.00 | 0.00 | 79 | 1006.7 |
| 20260506201302 | 85 | 78 | 3.5 | 9.6 | 0.00 | 0.00 | 0.00 | 81 | 1006.7 |
| 20260506201203 | 85 | 61 | 3.5 | 9.6 | 0.00 | 0.00 | 0.00 | 81 | 1006.7 |
| 20260506201102 | 85 | 89 | 3.5 | 9.6 | 0.00 | 0.00 | 0.00 | 81 | 1006.7 |
| 20260506201001 | 85 | 152 | 3.5 | 9.6 | 0.00 | 0.00 | 0.00 | 80 | 1006.7 |
| 20260506200902 | 86 | 116 | 4.3 | 9.6 | 0.00 | 0.00 | 0.00 | 79 | 1006.7 |
| 20260506200802 | 86 | 107 | 6.1 | 9.6 | 0.00 | 0.00 | 0.00 | 78 | 1006.7 |
| 20260506200701 | 86 | 104 | 5.2 | 9.6 | 0.00 | 0.00 | 0.00 | 77 | 1006.7 |
| 20260506200558 | 86 | 106 | 3.5 | 9.6 | 0.00 | 0.00 | 0.00 | 76 | 1006.7 |
| 20260506200457 | 87 | 195 | 3.5 | 9.6 | 0.00 | 0.00 | 0.00 | 76 | 1006.7 |
| 20260506200355 | 87 | 121 | 3.5 | 9.6 | 0.00 | 0.00 | 0.00 | 76 | 1006.7 |
| 20260506200254 | 87 | 171 | 2.6 | 8.7 | 0.00 | 0.00 | 0.00 | 76 | 1006.7 |
| 20260506200147 | 87 | 145 | 2.6 | 8.7 | 0.00 | 0.00 | 0.00 | 76 | 1006.6 |
| 20260506200048 | 87 | 109 | 2.6 | 8.7 | 0.00 | 0.00 | 0.00 | 76 | 1006.7 |
| 20260506195946 | 87 | 166 | 1.7 | 8.7 | 0.00 | 0.00 | 0.00 | 77 | 1006.7 |
| 20260506195845 | 87 | 118 | 3.5 | 8.7 | 0.00 | 0.00 | 0.00 | 76 | 1006.7 |
| 20260506195744 | 87 | 138 | 3.5 | 8.7 | 0.00 | 0.00 | 0.00 | 76 | 1006.8 |
| 20260506195645 | 87 | 172 | 3.5 | 8.7 | 0.00 | 0.00 | 0.00 | 76 | 1006.7 |
| 20260506195544 | 87 | 157 | 4.3 | 8.7 | 0.00 | 0.00 | 0.00 | 76 | 1006.7 |
| 20260506195444 | 87 | 135 | 5.2 | 8.7 | 0.00 | 0.00 | 0.00 | 76 | 1006.8 |
| 20260506195346 | 87 | 200 | 4.3 | 8.7 | 0.00 | 0.00 | 0.00 | 76 | 1006.7 |
| 20260506195244 | 87 | 188 | 2.6 | 8.7 | 0.00 | 0.00 | 0.00 | 76 | 1006.8 |
| 20260506195144 | 87 | 192 | 3.5 | 8.7 | 0.00 | 0.00 | 0.00 | 76 | 1006.8 |
| 20260506195044 | 86 | 186 | 4.3 | 8.7 | 0.00 | 0.00 | 0.00 | 76 | 1006.8 |
| 20260506194946 | 86 | 124 | 4.3 | 8.7 | 0.00 | 0.00 | 0.00 | 76 | 1006.8 |
| 20260506194844 | 86 | 252 | 3.5 | 7.8 | 0.00 | 0.00 | 0.00 | 75 | 1006.9 |
| 20260506194744 | 87 | 193 | 3.5 | 7.8 | 0.00 | 0.00 | 0.00 | 75 | 1006.8 |
| 20260506194645 | 87 | 206 | 3.5 | 7.8 | 0.00 | 0.00 | 0.00 | 75 | 1006.9 |
| 20260506194544 | 87 | 195 | 4.3 | 7.8 | 0.00 | 0.00 | 0.00 | 75 | 1006.9 |
| 20260506194444 | 87 | 189 | 4.3 | 7.8 | 0.00 | 0.00 | 0.00 | 76 | 1006.8 |
| 20260506194344 | 87 | 151 | 3.5 | 6.1 | 0.00 | 0.00 | 0.00 | 76 | 1006.8 |
| 20260506194246 | 87 | 196 | 2.6 | 6.1 | 0.00 | 0.00 | 0.00 | 76 | 1006.9 |
| 20260506194144 | 87 | 128 | 1.7 | 6.1 | 0.00 | 0.00 | 0.00 | 76 | 1006.9 |
| 20260506194044 | 87 | 161 | 1.7 | 6.1 | 0.00 | 0.00 | 0.00 | 77 | 1006.9 |
| 20260506193946 | 87 | 186 | 1.7 | 6.1 | 0.00 | 0.00 | 0.00 | 77 | 1007.0 |
| 20260506193845 | 86 | 116 | 1.7 | 6.1 | 0.00 | 0.00 | 0.00 | 77 | 1006.9 |
| 20260506193745 | 86 | 75 | 1.7 | 6.1 | 0.00 | 0.00 | 0.00 | 77 | 1007.0 |
| 20260506193644 | 86 | 149 | 1.7 | 6.1 | 0.00 | 0.00 | 0.00 | 77 | 1006.9 |
| 20260506193546 | 86 | 141 | 2.6 | 8.7 | 0.00 | 0.00 | 0.00 | 76 | 1006.9 |
| 20260506193444 | 86 | 131 | 2.6 | 9.6 | 0.00 | 0.00 | 0.00 | 76 | 1006.9 |
| 20260506193343 | 86 | 158 | 3.5 | 9.6 | 0.00 | 0.00 | 0.00 | 76 | 1006.9 |
| 20260506193244 | 86 | 161 | 2.6 | 9.6 | 0.00 | 0.00 | 0.00 | 76 | 1007.0 |
| 20260506193143 | 86 | 161 | 2.6 | 9.6 | 0.00 | 0.00 | 0.00 | 76 | 1007.0 |
| 20260506193043 | 86 | 127 | 4.3 | 9.6 | 0.00 | 0.00 | 0.00 | 76 | 1007.0 |
| 20260506192946 | 86 | 234 | 4.3 | 9.6 | 0.00 | 0.00 | 0.00 | 77 | 1007.0 |
| 20260506192845 | 86 | 180 | 4.3 | 9.6 | 0.00 | 0.00 | 0.00 | 76 | 1007.0 |
| 20260506192744 | 86 | 221 | 4.3 | 9.6 | 0.00 | 0.00 | 0.00 | 76 | 1007.0 |
| 20260506192644 | 86 | 175 | 4.3 | 9.6 | 0.00 | 0.00 | 0.00 | 76 | 1007.0 |
| 20260506192545 | 86 | 164 | 2.6 | 9.6 | 0.00 | 0.00 | 0.00 | 77 | 1007.0 |
| 20260506192445 | 86 | 45 | 1.7 | 5.2 | 0.00 | 0.00 | 0.00 | 79 | 1007.0 |
| 20260506192344 | 86 | 202 | 1.7 | 5.2 | 0.00 | 0.00 | 0.00 | 79 | 1007.1 |
| 20260506192243 | 85 | 120 | 1.7 | 5.2 | 0.00 | 0.00 | 0.00 | 79 | 1007.1 |
| 20260506192218 | 85 | 175 | 1.7 | 5.2 | 0.00 | 0.00 | 0.00 | 79 | 1007.1 |
| 20260506192043 | 85 | 107 | 2.6 | 5.2 | 0.00 | 0.00 | 0.00 | 79 | 1007.1 |
| 20260506192014 | 85 | 107 | 2.6 | 5.2 | 0.00 | 0.00 | 0.00 | 78 | 1007.0 |
| 20260506191844 | 85 | 114 | 2.6 | 5.2 | 0.00 | 0.00 | 0.00 | 79 | 1007.1 |
| 20260506191744 | 85 | 120 | 3.5 | 5.2 | 0.00 | 0.00 | 0.00 | 79 | 1007.1 |
| 20260506191643 | 85 | 200 | 4.3 | 5.2 | 0.00 | 0.00 | 0.00 | 79 | 1007.1 |
| 20260506191544 | 85 | 188 | 4.3 | 5.2 | 0.00 | 0.00 | 0.00 | 79 | 1007.2 |
| 20260506191445 | 85 | 195 | 3.5 | 5.2 | 0.00 | 0.00 | 0.00 | 79 | 1007.2 |
| 20260506191344 | 85 | 235 | 1.7 | 5.2 | 0.00 | 0.00 | 0.00 | 79 | 1007.2 |
| 20260506191245 | 85 | 123 | 1.7 | 4.3 | 0.00 | 0.00 | 0.00 | 80 | 1007.3 |
| 20260506191144 | 85 | 158 | 0.9 | 4.3 | 0.00 | 0.00 | 0.00 | 80 | 1007.3 |
| 20260506191044 | 85 | 47 | 0.9 | 4.3 | 0.00 | 0.00 | 0.00 | 80 | 1007.3 |
| 20260506190943 | 85 | 142 | 2.6 | 4.3 | 0.00 | 0.00 | 0.00 | 81 | 1007.4 |
| 20260506190845 | 85 | 106 | 2.6 | 4.3 | 0.00 | 0.00 | 0.00 | 81 | 1007.4 |
| 20260506190743 | 85 | 89 | 2.6 | 4.3 | 0.00 | 0.00 | 0.00 | 80 | 1007.4 |
| 20260506190643 | 85 | 142 | 2.6 | 4.3 | 0.00 | 0.00 | 0.00 | 80 | 1007.4 |
| 20260506190541 | 85 | 111 | 1.7 | 4.3 | 0.00 | 0.00 | 0.00 | 80 | 1007.3 |
| 20260506190441 | 85 | 87 | 1.7 | 4.3 | 0.00 | 0.00 | 0.00 | 80 | 1007.3 |
| 20260506190339 | 85 | 111 | 1.7 | 4.3 | 0.00 | 0.00 | 0.00 | 80 | 1007.3 |
| 20260506190237 | 85 | 140 | 2.6 | 4.3 | 0.00 | 0.00 | 0.00 | 79 | 1007.3 |
| 20260506190138 | 85 | 147 | 2.6 | 4.3 | 0.00 | 0.00 | 0.00 | 79 | 1007.4 |
| 20260506190036 | 85 | 121 | 2.6 | 4.3 | 0.00 | 0.00 | 0.00 | 79 | 1007.4 |
| 20260506185933 | 86 | 154 | 2.6 | 5.2 | 0.00 | 0.00 | 0.00 | 78 | 1007.4 |
| 20260506185831 | 86 | 306 | 1.7 | 5.2 | 0.00 | 0.00 | 0.00 | 77 | 1007.4 |
| 20260506185731 | 86 | 245 | 1.7 | 5.2 | 0.00 | 0.00 | 0.00 | 77 | 1007.4 |
| 20260506185633 | 86 | 209 | 0.9 | 5.2 | 0.00 | 0.00 | 0.00 | 77 | 1007.4 |
| 20260506185531 | 87 | 173 | 0.9 | 5.2 | 0.00 | 0.00 | 0.00 | 77 | 1007.5 |
| 20260506185432 | 87 | 127 | 0.9 | 5.2 | 0.00 | 0.00 | 0.00 | 77 | 1007.5 |
| 20260506185332 | 87 | 110 | 0.9 | 5.2 | 0.00 | 0.00 | 0.00 | 77 | 1007.4 |
| 20260506185231 | 87 | 99 | 0.9 | 5.2 | 0.00 | 0.00 | 0.00 | 77 | 1007.5 |
| 20260506185131 | 87 | 99 | 1.7 | 5.2 | 0.00 | 0.00 | 0.00 | 77 | 1007.5 |
| 20260506185031 | 87 | 100 | 3.5 | 5.2 | 0.00 | 0.00 | 0.00 | 77 | 1007.5 |
| 20260506184931 | 87 | 82 | 2.6 | 5.2 | 0.00 | 0.00 | 0.00 | 77 | 1007.5 |
| 20260506184832 | 87 | 59 | 1.7 | 5.2 | 0.00 | 0.00 | 0.00 | 78 | 1007.5 |
| 20260506184731 | 86 | 255 | 2.6 | 5.2 | 0.00 | 0.00 | 0.00 | 77 | 1007.5 |
| 20260506184631 | 87 | 254 | 2.6 | 5.2 | 0.00 | 0.00 | 0.00 | 77 | 1007.5 |
| 20260506184532 | 87 | 264 | 0.9 | 5.2 | 0.00 | 0.00 | 0.00 | 78 | 1007.5 |
| 20260506184430 | 86 | 93 | 0.9 | 5.2 | 0.00 | 0.00 | 0.00 | 79 | 1007.5 |
| 20260506184331 | 86 | 93 | 2.6 | 5.2 | 0.00 | 0.00 | 0.00 | 79 | 1007.5 |
| 20260506184233 | 85 | 94 | 3.5 | 5.2 | 0.00 | 0.00 | 0.00 | 79 | 1007.5 |
| 20260506184130 | 85 | 100 | 3.5 | 5.2 | 0.00 | 0.00 | 0.00 | 79 | 1007.5 |
| 20260506184028 | 85 | 118 | 2.6 | 5.2 | 0.00 | 0.00 | 0.00 | 79 | 1007.5 |
| 20260506183927 | 86 | 133 | 1.7 | 4.3 | 0.00 | 0.00 | 0.00 | 79 | 1007.6 |
| 20260506183826 | 86 | 165 | 1.7 | 4.3 | 0.00 | 0.00 | 0.00 | 79 | 1007.6 |
| 20260506183725 | 86 | 158 | 2.6 | 4.3 | 0.00 | 0.00 | 0.00 | 79 | 1007.6 |
| 20260506183622 | 86 | 168 | 2.6 | 4.3 | 0.00 | 0.00 | 0.00 | 79 | 1007.6 |
| 20260506183516 | 86 | 92 | 2.6 | 4.3 | 0.00 | 0.00 | 0.00 | 80 | 1007.6 |
| 20260506183415 | 85 | 82 | 3.5 | 4.3 | 0.00 | 0.00 | 0.00 | 79 | 1007.6 |
| 20260506183313 | 86 | 93 | 3.5 | 4.3 | 0.00 | 0.00 | 0.00 | 79 | 1007.7 |
| 20260506183211 | 86 | 152 | 2.6 | 4.3 | 0.00 | 0.00 | 0.00 | 79 | 1007.7 |
| 20260506183111 | 86 | 202 | 1.7 | 3.5 | 0.00 | 0.00 | 0.00 | 79 | 1007.7 |
| 20260506183008 | 85 | 102 | 1.7 | 3.5 | 0.00 | 0.00 | 0.00 | 81 | 1007.8 |
| 20260506182907 | 85 | 169 | 1.7 | 3.5 | 0.00 | 0.00 | 0.00 | 80 | 1007.8 |
| 20260506182803 | 85 | 85 | 0.0 | 3.5 | 0.00 | 0.00 | 0.00 | 80 | 1007.8 |
| 20260506182703 | 85 | 168 | 0.9 | 3.5 | 0.00 | 0.00 | 0.00 | 81 | 1007.8 |
| 20260506182603 | 85 | 169 | 1.7 | 3.5 | 0.00 | 0.00 | 0.00 | 81 | 1007.8 |
| 20260506182502 | 85 | 169 | 1.7 | 4.3 | 0.00 | 0.00 | 0.00 | 81 | 1007.9 |
| 20260506182402 | 84 | 220 | 0.9 | 4.3 | 0.00 | 0.00 | 0.00 | 82 | 1007.9 |
| 20260506182306 | 84 | 217 | 0.9 | 4.3 | 0.00 | 0.00 | 0.00 | 82 | 1007.9 |
| 20260506182203 | 84 | 118 | 1.7 | 4.3 | 0.00 | 0.00 | 0.00 | 82 | 1007.9 |
| 20260506182103 | 84 | 99 | 1.7 | 4.3 | 0.00 | 0.00 | 0.00 | 82 | 1007.9 |
| 20260506182003 | 84 | 190 | 0.9 | 4.3 | 0.00 | 0.00 | 0.00 | 82 | 1008.0 |
| 20260506181903 | 84 | 118 | 0.9 | 4.3 | 0.00 | 0.00 | 0.00 | 82 | 1008.0 |
| 20260506181802 | 84 | 118 | 0.9 | 4.3 | 0.00 | 0.00 | 0.00 | 81 | 1008.0 |
| 20260506181703 | 84 | 117 | 1.7 | 4.3 | 0.00 | 0.00 | 0.00 | 82 | 1008.0 |
| 20260506181602 | 84 | 113 | 1.7 | 4.3 | 0.00 | 0.00 | 0.00 | 82 | 1008.1 |
| 20260506181502 | 84 | 130 | 2.6 | 3.5 | 0.00 | 0.00 | 0.00 | 83 | 1008.1 |
| 20260506181402 | 84 | 104 | 1.7 | 3.5 | 0.00 | 0.00 | 0.00 | 82 | 1008.1 |
| 20260506181304 | 84 | 140 | 0.9 | 3.5 | 0.00 | 0.00 | 0.00 | 83 | 1008.2 |
| 20260506181203 | 83 | 200 | 0.9 | 3.5 | 0.00 | 0.00 | 0.00 | 84 | 1008.2 |
| 20260506181100 | 83 | 149 | 0.9 | 3.5 | 0.00 | 0.00 | 0.00 | 84 | 1008.2 |
| 20260506181000 | 83 | 116 | 0.9 | 3.5 | 0.00 | 0.00 | 0.00 | 84 | 1008.2 |
| 20260506180857 | 83 | 111 | 1.7 | 3.5 | 0.00 | 0.00 | 0.00 | 85 | 1008.2 |
| 20260506180756 | 83 | 106 | 1.7 | 3.5 | 0.00 | 0.00 | 0.00 | 85 | 1008.3 |
| 20260506180654 | 83 | 66 | 0.9 | 2.6 | 0.00 | 0.00 | 0.00 | 86 | 1008.3 |
| 20260506180552 | 82 | 134 | 0.0 | 2.6 | 0.00 | 0.00 | 0.00 | 86 | 1008.3 |
| 20260506180450 | 82 | 134 | 0.0 | 2.6 | 0.00 | 0.00 | 0.00 | 86 | 1008.3 |
| 20260506180351 | 82 | 134 | 0.9 | 3.5 | 0.00 | 0.00 | 0.00 | 87 | 1008.4 |
| 20260506180248 | 82 | 135 | 0.9 | 3.5 | 0.00 | 0.00 | 0.00 | 86 | 1008.4 |
| 20260506180147 | 82 | 135 | 0.0 | 3.5 | 0.00 | 0.00 | 0.00 | 87 | 1008.5 |
| 20260506180044 | 82 | 182 | 0.9 | 3.5 | 0.00 | 0.00 | 0.00 | 87 | 1008.5 |
| 20260506175942 | 82 | 183 | 0.9 | 3.5 | 0.00 | 0.00 | 0.00 | 86 | 1008.4 |
| 20260506175843 | 82 | 168 | 0.9 | 3.5 | 0.00 | 0.00 | 0.00 | 86 | 1008.5 |
| 20260506175742 | 82 | 130 | 0.0 | 3.5 | 0.00 | 0.00 | 0.00 | 87 | 1008.5 |
| 20260506175642 | 82 | 124 | 0.0 | 3.5 | 0.00 | 0.00 | 0.00 | 87 | 1008.6 |
| 20260506175541 | 82 | 123 | 1.7 | 3.5 | 0.00 | 0.00 | 0.00 | 87 | 1008.5 |
| 20260506175441 | 82 | 127 | 2.6 | 3.5 | 0.00 | 0.00 | 0.00 | 86 | 1008.6 |
| 20260506175341 | 82 | 154 | 2.6 | 5.2 | 0.00 | 0.00 | 0.00 | 86 | 1008.6 |
| 20260506175241 | 82 | 161 | 1.7 | 5.2 | 0.00 | 0.00 | 0.00 | 87 | 1008.6 |
| 20260506175142 | 82 | 165 | 0.9 | 5.2 | 0.00 | 0.00 | 0.00 | 87 | 1008.5 |
| 20260506175041 | 82 | 113 | 0.9 | 5.2 | 0.00 | 0.00 | 0.00 | 87 | 1008.5 |
| 20260506174941 | 82 | 114 | 1.7 | 5.2 | 0.00 | 0.00 | 0.00 | 86 | 1008.5 |
| 20260506174842 | 82 | 113 | 2.6 | 5.2 | 0.00 | 0.00 | 0.00 | 86 | 1008.6 |
| 20260506174742 | 82 | 140 | 1.7 | 5.2 | 0.00 | 0.00 | 0.00 | 86 | 1008.6 |
| 20260506174643 | 82 | 148 | 2.6 | 5.2 | 0.00 | 0.00 | 0.00 | 86 | 1008.7 |
| 20260506174542 | 82 | 186 | 3.5 | 5.2 | 0.00 | 0.00 | 0.00 | 86 | 1008.6 |
| 20260506174443 | 82 | 190 | 3.5 | 5.2 | 0.00 | 0.00 | 0.00 | 86 | 1008.7 |
| 20260506174341 | 82 | 169 | 2.6 | 5.2 | 0.00 | 0.00 | 0.00 | 85 | 1008.7 |
| 20260506174241 | 82 | 137 | 2.6 | 5.2 | 0.00 | 0.00 | 0.00 | 85 | 1008.7 |
| 20260506174142 | 82 | 154 | 1.7 | 5.2 | 0.00 | 0.00 | 0.00 | 85 | 1008.7 |
| 20260506174043 | 82 | 87 | 1.7 | 5.2 | 0.00 | 0.00 | 0.00 | 85 | 1008.7 |
| 20260506173943 | 82 | 86 | 1.7 | 5.2 | 0.00 | 0.00 | 0.00 | 85 | 1008.8 |
| 20260506173841 | 82 | 164 | 2.6 | 5.2 | 0.00 | 0.00 | 0.00 | 85 | 1008.7 |
| 20260506173743 | 82 | 172 | 1.7 | 6.1 | 0.00 | 0.00 | 0.00 | 85 | 1008.7 |
| 20260506173641 | 82 | 111 | 1.7 | 6.1 | 0.00 | 0.00 | 0.00 | 85 | 1008.7 |
| 20260506173541 | 82 | 117 | 1.7 | 6.1 | 0.00 | 0.00 | 0.00 | 84 | 1008.8 |
| 20260506173442 | 82 | 104 | 1.7 | 6.1 | 0.00 | 0.00 | 0.00 | 84 | 1008.7 |
| 20260506173341 | 82 | 120 | 2.6 | 6.1 | 0.00 | 0.00 | 0.00 | 84 | 1008.8 |
| 20260506173242 | 83 | 151 | 3.5 | 6.1 | 0.00 | 0.00 | 0.00 | 84 | 1008.8 |
| 20260506173142 | 83 | 102 | 3.5 | 6.1 | 0.00 | 0.00 | 0.00 | 84 | 1008.8 |
| 20260506173043 | 83 | 165 | 3.5 | 6.1 | 0.00 | 0.00 | 0.00 | 83 | 1008.8 |
| 20260506172941 | 83 | 133 | 3.5 | 6.1 | 0.00 | 0.00 | 0.00 | 83 | 1008.9 |
| 20260506172841 | 83 | 175 | 2.6 | 6.1 | 0.00 | 0.00 | 0.00 | 83 | 1008.9 |
| 20260506172743 | 83 | 120 | 2.6 | 5.2 | 0.00 | 0.00 | 0.00 | 83 | 1008.8 |
| 20260506172641 | 83 | 171 | 1.7 | 5.2 | 0.00 | 0.00 | 0.00 | 83 | 1008.9 |
| 20260506172540 | 84 | 114 | 1.7 | 4.3 | 0.00 | 0.00 | 0.00 | 83 | 1008.8 |
| 20260506172442 | 84 | 118 | 1.7 | 4.3 | 0.00 | 0.00 | 0.00 | 83 | 1008.8 |
| 20260506172341 | 84 | 128 | 0.9 | 4.3 | 0.00 | 0.00 | 0.00 | 83 | 1008.9 |
| 20260506172241 | 84 | 175 | 1.7 | 5.2 | 0.00 | 0.00 | 0.00 | 83 | 1008.8 |
| 20260506172140 | 84 | 228 | 0.9 | 6.1 | 0.00 | 0.00 | 0.00 | 83 | 1008.8 |
| 20260506172042 | 84 | 231 | 0.9 | 6.1 | 0.00 | 0.00 | 0.00 | 84 | 1008.9 |
| 20260506171941 | 83 | 271 | 0.9 | 6.1 | 0.00 | 0.00 | 0.00 | 84 | 1008.9 |
| 20260506171841 | 83 | 116 | 1.7 | 6.1 | 0.00 | 0.00 | 0.00 | 84 | 1008.9 |
| 20260506171741 | 83 | 104 | 2.6 | 7.8 | 0.00 | 0.00 | 0.00 | 84 | 1008.9 |
| 20260506171640 | 83 | 82 | 1.7 | 7.8 | 0.00 | 0.00 | 0.00 | 84 | 1008.9 |
| 20260506171540 | 83 | 172 | 1.7 | 7.8 | 0.00 | 0.00 | 0.00 | 85 | 1008.9 |
| 20260506171440 | 83 | 161 | 2.6 | 7.8 | 0.00 | 0.00 | 0.00 | 85 | 1008.9 |
| 20260506171341 | 83 | 118 | 3.5 | 7.8 | 0.00 | 0.00 | 0.00 | 84 | 1008.9 |
| 20260506171241 | 83 | 107 | 3.5 | 7.8 | 0.00 | 0.00 | 0.00 | 84 | 1009.0 |
| 20260506171140 | 83 | 85 | 1.7 | 7.8 | 0.00 | 0.00 | 0.00 | 85 | 1008.9 |
| 20260506171040 | 83 | 110 | 2.6 | 7.8 | 0.00 | 0.00 | 0.00 | 84 | 1009.0 |
| 20260506170941 | 83 | 195 | 3.5 | 7.8 | 0.00 | 0.00 | 0.00 | 85 | 1009.0 |
| 20260506170840 | 83 | 148 | 2.6 | 7.8 | 0.00 | 0.00 | 0.00 | 84 | 1009.0 |
| 20260506170741 | 83 | 147 | 2.6 | 6.1 | 0.00 | 0.00 | 0.00 | 84 | 1009.1 |
| 20260506170641 | 83 | 204 | 2.6 | 6.1 | 0.00 | 0.00 | 0.00 | 84 | 1009.0 |
| 20260506170541 | 83 | 0 | 1.7 | 6.1 | 0.00 | 0.00 | 0.00 | 85 | 1009.0 |
| 20260506170440 | 83 | 0 | 1.7 | 7.8 | 0.00 | 0.00 | 0.00 | 85 | 1009.0 |
| 20260506170342 | 82 | 0 | 2.6 | 7.8 | 0.00 | 0.00 | 0.00 | 85 | 1008.9 |
| 20260506170240 | 82 | 65 | 3.5 | 7.8 | 0.00 | 0.00 | 0.00 | 85 | 1008.9 |
| 20260506170141 | 82 | 107 | 3.5 | 7.8 | 0.00 | 0.00 | 0.00 | 85 | 1009.0 |
| 20260506170041 | 82 | 161 | 3.5 | 7.8 | 0.00 | 0.00 | 0.00 | 86 | 1009.0 |
| 20260506165937 | 82 | 109 | 3.5 | 7.8 | 0.00 | 0.00 | 0.00 | 86 | 1008.9 |
| 20260506165837 | 82 | 103 | 3.5 | 7.8 | 0.00 | 0.00 | 0.00 | 86 | 1008.9 |
| 20260506165734 | 82 | 151 | 3.5 | 7.8 | 0.00 | 0.00 | 0.00 | 86 | 1008.9 |
| 20260506165633 | 81 | 173 | 4.3 | 7.8 | 0.00 | 0.00 | 0.00 | 86 | 1008.9 |
| 20260506165531 | 81 | 142 | 4.3 | 7.8 | 0.00 | 0.00 | 0.00 | 86 | 1008.9 |
| 20260506165431 | 81 | 203 | 3.5 | 7.8 | 0.00 | 0.00 | 0.00 | 87 | 1008.9 |
| 20260506165334 | 81 | 107 | 3.5 | 7.8 | 0.00 | 0.00 | 0.00 | 87 | 1008.9 |
| 20260506165232 | 81 | 121 | 3.5 | 7.8 | 0.00 | 0.00 | 0.00 | 87 | 1008.9 |
| 20260506165132 | 81 | 135 | 2.6 | 7.8 | 0.00 | 0.00 | 0.00 | 87 | 1009.0 |
| 20260506165033 | 81 | 169 | 3.5 | 7.8 | 0.00 | 0.00 | 0.00 | 87 | 1009.0 |
| 20260506164932 | 81 | 100 | 5.2 | 7.8 | 0.00 | 0.00 | 0.00 | 87 | 1009.0 |
| 20260506164830 | 81 | 140 | 4.3 | 8.7 | 0.00 | 0.00 | 0.00 | 87 | 1008.9 |
| 20260506164730 | 81 | 158 | 3.5 | 8.7 | 0.00 | 0.00 | 0.00 | 87 | 1008.9 |
| 20260506164630 | 81 | 152 | 2.6 | 8.7 | 0.00 | 0.00 | 0.00 | 87 | 1008.9 |
| 20260506164531 | 81 | 110 | 1.7 | 8.7 | 0.00 | 0.00 | 0.00 | 87 | 1008.9 |
| 20260506164431 | 81 | 125 | 2.6 | 8.7 | 0.00 | 0.00 | 0.00 | 87 | 1008.9 |
| 20260506164330 | 81 | 134 | 2.6 | 10.4 | 0.00 | 0.00 | 0.00 | 87 | 1009.0 |
| 20260506164212 | 81 | 124 | 2.6 | 10.4 | 0.00 | 0.00 | 0.00 | 86 | 1009.0 |
| 20260506164111 | 81 | 109 | 3.5 | 10.4 | 0.00 | 0.00 | 0.00 | 86 | 1008.9 |
| 20260506164010 | 81 | 207 | 3.5 | 10.4 | 0.00 | 0.00 | 0.00 | 86 | 1009.0 |
| 20260506163907 | 81 | 165 | 4.3 | 10.4 | 0.00 | 0.00 | 0.00 | 85 | 1009.0 |
| 20260506163806 | 81 | 192 | 3.5 | 10.4 | 0.00 | 0.00 | 0.00 | 85 | 1008.9 |
| 20260506163704 | 81 | 164 | 3.5 | 10.4 | 0.00 | 0.00 | 0.00 | 85 | 1008.9 |
| 20260506163603 | 81 | 148 | 3.5 | 10.4 | 0.00 | 0.00 | 0.00 | 85 | 1009.0 |
| 20260506163502 | 81 | 197 | 4.3 | 10.4 | 0.00 | 0.00 | 0.00 | 85 | 1008.9 |
| 20260506163403 | 81 | 176 | 5.2 | 10.4 | 0.00 | 0.00 | 0.00 | 84 | 1008.9 |
| 20260506163303 | 81 | 190 | 4.3 | 7.8 | 0.00 | 0.00 | 0.00 | 84 | 1008.9 |
| 20260506163201 | 81 | 196 | 3.5 | 6.1 | 0.00 | 0.00 | 0.00 | 85 | 1008.8 |
| 20260506163101 | 81 | 179 | 2.6 | 6.1 | 0.00 | 0.00 | 0.00 | 85 | 1008.8 |
| 20260506163004 | 82 | 197 | 0.9 | 4.3 | 0.00 | 0.00 | 0.00 | 85 | 1008.7 |
| 20260506162902 | 81 | 164 | 0.9 | 4.3 | 0.00 | 0.00 | 0.00 | 85 | 1008.8 |
| 20260506162802 | 81 | 192 | 1.7 | 4.3 | 0.00 | 0.00 | 0.00 | 85 | 1008.8 |
| 20260506162704 | 82 | 155 | 1.7 | 4.3 | 0.00 | 0.00 | 0.00 | 85 | 1008.7 |
| 20260506162601 | 81 | 168 | 1.7 | 5.2 | 0.00 | 0.00 | 0.00 | 85 | 1008.7 |
| 20260506162502 | 81 | 148 | 2.6 | 5.2 | 0.00 | 0.00 | 0.00 | 85 | 1008.8 |
| 20260506162403 | 81 | 106 | 2.6 | 6.1 | 0.00 | 0.00 | 0.00 | 85 | 1008.8 |
| 20260506162306 | 81 | 180 | 2.6 | 6.1 | 0.00 | 0.00 | 0.00 | 85 | 1008.7 |
| 20260506162203 | 82 | 135 | 2.6 | 6.1 | 0.00 | 0.00 | 0.00 | 85 | 1008.7 |
| 20260506162104 | 82 | 135 | 2.6 | 6.1 | 0.00 | 0.00 | 0.00 | 85 | 1008.7 |
| 20260506162003 | 82 | 135 | 2.6 | 6.1 | 0.00 | 0.00 | 0.00 | 85 | 1008.7 |
| 20260506161902 | 82 | 135 | 2.6 | 6.1 | 0.00 | 0.00 | 0.00 | 85 | 1008.7 |
| 20260506161803 | 82 | 135 | 2.6 | 6.1 | 0.00 | 0.00 | 0.00 | 85 | 1008.7 |
| 20260506161703 | 82 | 99 | 3.5 | 6.1 | 0.00 | 0.00 | 0.00 | 85 | 1008.7 |
| 20260506161604 | 82 | 154 | 3.5 | 6.1 | 0.00 | 0.00 | 0.00 | 85 | 1008.5 |
| 20260506161503 | 82 | 152 | 3.5 | 6.1 | 0.00 | 0.00 | 0.00 | 85 | 1008.6 |
| 20260506161403 | 82 | 157 | 3.5 | 6.1 | 0.00 | 0.00 | 0.00 | 85 | 1008.5 |
| 20260506161303 | 81 | 168 | 3.5 | 6.1 | 0.00 | 0.00 | 0.00 | 85 | 1008.5 |
| 20260506161202 | 81 | 182 | 3.5 | 5.2 | 0.00 | 0.00 | 0.00 | 85 | 1008.5 |
| 20260506161102 | 81 | 131 | 2.6 | 5.2 | 0.00 | 0.00 | 0.00 | 85 | 1008.6 |
| 20260506161004 | 81 | 162 | 2.6 | 5.2 | 0.00 | 0.00 | 0.00 | 85 | 1008.6 |
| 20260506160903 | 81 | 173 | 1.7 | 5.2 | 0.00 | 0.00 | 0.00 | 85 | 1008.6 |
| 20260506160801 | 81 | 106 | 2.6 | 5.2 | 0.00 | 0.00 | 0.00 | 85 | 1008.6 |
| 20260506160702 | 81 | 131 | 1.7 | 5.2 | 0.00 | 0.00 | 0.00 | 86 | 1008.6 |
| 20260506160603 | 81 | 123 | 0.9 | 5.2 | 0.00 | 0.00 | 0.00 | 86 | 1008.6 |
| 20260506160504 | 81 | 97 | 0.0 | 5.2 | 0.00 | 0.00 | 0.00 | 86 | 1008.7 |
| 20260506160403 | 81 | 157 | 1.7 | 5.2 | 0.00 | 0.00 | 0.00 | 86 | 1008.7 |
| 20260506160303 | 81 | 157 | 2.6 | 5.2 | 0.00 | 0.00 | 0.00 | 86 | 1008.6 |
| 20260506160202 | 81 | 151 | 2.6 | 5.2 | 0.00 | 0.00 | 0.00 | 86 | 1008.7 |
| 20260506160103 | 81 | 178 | 3.5 | 5.2 | 0.00 | 0.00 | 0.00 | 86 | 1008.7 |
| 20260506160004 | 81 | 134 | 3.5 | 5.2 | 0.00 | 0.00 | 0.00 | 86 | 1008.6 |
| 20260506155903 | 81 | 110 | 3.5 | 5.2 | 0.00 | 0.00 | 0.00 | 86 | 1008.7 |
| 20260506155802 | 81 | 155 | 3.5 | 5.2 | 0.00 | 0.00 | 0.00 | 86 | 1008.7 |
| 20260506155702 | 81 | 138 | 2.6 | 5.2 | 0.00 | 0.00 | 0.00 | 86 | 1008.7 |
| 20260506155603 | 81 | 182 | 2.6 | 5.2 | 0.00 | 0.00 | 0.00 | 86 | 1008.7 |
| 20260506155502 | 81 | 178 | 2.6 | 5.2 | 0.00 | 0.00 | 0.00 | 86 | 1008.7 |
| 20260506155403 | 81 | 135 | 2.6 | 5.2 | 0.00 | 0.00 | 0.00 | 86 | 1008.6 |
| 20260506155306 | 81 | 120 | 2.6 | 5.2 | 0.00 | 0.00 | 0.00 | 86 | 1008.6 |
| 20260506155203 | 81 | 137 | 2.6 | 5.2 | 0.00 | 0.00 | 0.00 | 86 | 1008.6 |
| 20260506155103 | 81 | 162 | 1.7 | 5.2 | 0.00 | 0.00 | 0.00 | 86 | 1008.5 |
| 20260506155003 | 81 | 224 | 1.7 | 6.1 | 0.00 | 0.00 | 0.00 | 86 | 1008.6 |
| 20260506154902 | 81 | 125 | 1.7 | 6.1 | 0.00 | 0.00 | 0.00 | 86 | 1008.5 |
| 20260506154802 | 81 | 190 | 3.5 | 6.1 | 0.00 | 0.00 | 0.00 | 86 | 1008.6 |
| 20260506154702 | 81 | 165 | 3.5 | 6.1 | 0.00 | 0.00 | 0.00 | 86 | 1008.5 |
| 20260506154603 | 81 | 172 | 2.6 | 6.1 | 0.00 | 0.00 | 0.00 | 86 | 1008.6 |
| 20260506154503 | 81 | 154 | 1.7 | 6.1 | 0.00 | 0.00 | 0.00 | 86 | 1008.6 |
| 20260506154404 | 81 | 114 | 2.6 | 6.1 | 0.00 | 0.00 | 0.00 | 86 | 1008.6 |
| 20260506154303 | 81 | 154 | 3.5 | 6.1 | 0.00 | 0.00 | 0.00 | 86 | 1008.6 |
| 20260506154202 | 81 | 169 | 4.3 | 6.1 | 0.00 | 0.00 | 0.00 | 86 | 1008.5 |
| 20260506154102 | 81 | 120 | 3.5 | 6.1 | 0.00 | 0.00 | 0.00 | 86 | 1008.5 |
| 20260506154002 | 81 | 124 | 3.5 | 6.1 | 0.00 | 0.00 | 0.00 | 86 | 1008.6 |
| 20260506153903 | 81 | 147 | 4.3 | 6.1 | 0.00 | 0.00 | 0.00 | 86 | 1008.6 |
| 20260506153802 | 81 | 164 | 3.5 | 5.2 | 0.00 | 0.00 | 0.00 | 86 | 1008.5 |
| 20260506153703 | 81 | 113 | 2.6 | 5.2 | 0.00 | 0.00 | 0.00 | 86 | 1008.5 |
| 20260506153603 | 81 | 206 | 3.5 | 7.8 | 0.00 | 0.00 | 0.00 | 86 | 1008.5 |
| 20260506153502 | 81 | 189 | 3.5 | 7.8 | 0.00 | 0.00 | 0.00 | 86 | 1008.5 |
| 20260506153402 | 81 | 157 | 2.6 | 7.8 | 0.00 | 0.00 | 0.00 | 86 | 1008.5 |
| 20260506153302 | 81 | 178 | 2.6 | 7.8 | 0.00 | 0.00 | 0.00 | 86 | 1008.5 |
| 20260506153203 | 81 | 145 | 2.6 | 7.8 | 0.00 | 0.00 | 0.00 | 86 | 1008.5 |
| 20260506153103 | 81 | 127 | 1.7 | 7.8 | 0.00 | 0.00 | 0.00 | 86 | 1008.4 |
| 20260506153003 | 81 | 147 | 2.6 | 7.8 | 0.00 | 0.00 | 0.00 | 86 | 1008.4 |
| 20260506152903 | 81 | 142 | 4.3 | 7.8 | 0.00 | 0.00 | 0.00 | 86 | 1008.4 |
| 20260506152803 | 81 | 140 | 4.3 | 7.8 | 0.00 | 0.00 | 0.00 | 86 | 1008.4 |
| 20260506152702 | 81 | 172 | 3.5 | 7.8 | 0.00 | 0.00 | 0.00 | 86 | 1008.4 |
| 20260506152602 | 81 | 178 | 3.5 | 6.1 | 0.00 | 0.00 | 0.00 | 86 | 1008.4 |
| 20260506152505 | 81 | 121 | 3.5 | 6.1 | 0.00 | 0.00 | 0.00 | 86 | 1008.3 |
| 20260506152402 | 81 | 165 | 3.5 | 6.1 | 0.00 | 0.00 | 0.00 | 86 | 1008.4 |
| 20260506152305 | 81 | 138 | 1.7 | 8.7 | 0.00 | 0.00 | 0.00 | 86 | 1008.3 |
| 20260506152203 | 81 | 169 | 1.7 | 8.7 | 0.00 | 0.00 | 0.00 | 86 | 1008.4 |
| 20260506152103 | 81 | 171 | 2.6 | 8.7 | 0.00 | 0.00 | 0.00 | 86 | 1008.3 |
| 20260506152003 | 81 | 73 | 2.6 | 8.7 | 0.00 | 0.00 | 0.00 | 86 | 1008.2 |
| 20260506151903 | 81 | 118 | 1.7 | 8.7 | 0.00 | 0.00 | 0.00 | 86 | 1008.3 |
| 20260506151802 | 81 | 178 | 1.7 | 8.7 | 0.00 | 0.00 | 0.00 | 87 | 1008.3 |
| 20260506151702 | 81 | 113 | 2.6 | 8.7 | 0.00 | 0.00 | 0.00 | 86 | 1008.2 |
| 20260506151603 | 81 | 114 | 3.5 | 8.7 | 0.00 | 0.00 | 0.00 | 86 | 1008.1 |
| 20260506151504 | 81 | 97 | 4.3 | 8.7 | 0.00 | 0.00 | 0.00 | 86 | 1008.1 |
| 20260506151403 | 81 | 137 | 5.2 | 8.7 | 0.00 | 0.00 | 0.00 | 86 | 1008.0 |
| 20260506151303 | 81 | 113 | 4.3 | 7.8 | 0.00 | 0.00 | 0.00 | 86 | 1008.1 |
| 20260506151203 | 81 | 173 | 3.5 | 7.8 | 0.00 | 0.00 | 0.00 | 86 | 1008.1 |
| 20260506151103 | 81 | 148 | 2.6 | 6.1 | 0.00 | 0.00 | 0.00 | 86 | 1008.2 |
| 20260506151002 | 81 | 175 | 2.6 | 6.1 | 0.00 | 0.00 | 0.00 | 86 | 1008.1 |
| 20260506150901 | 81 | 197 | 2.6 | 6.1 | 0.00 | 0.00 | 0.00 | 87 | 1008.1 |
| 20260506150803 | 81 | 109 | 3.5 | 6.1 | 0.00 | 0.00 | 0.00 | 86 | 1008.2 |
| 20260506150703 | 81 | 123 | 4.3 | 6.1 | 0.00 | 0.00 | 0.00 | 87 | 1008.1 |
| 20260506150604 | 81 | 131 | 3.5 | 7.8 | 0.00 | 0.00 | 0.00 | 87 | 1008.1 |
| 20260506150504 | 81 | 100 | 3.5 | 7.8 | 0.00 | 0.00 | 0.00 | 86 | 1008.1 |
| 20260506150402 | 81 | 118 | 3.5 | 7.8 | 0.00 | 0.00 | 0.00 | 87 | 1008.1 |
| 20260506150304 | 81 | 69 | 3.5 | 7.8 | 0.00 | 0.00 | 0.00 | 86 | 1008.1 |
| 20260506150203 | 81 | 117 | 3.5 | 7.8 | 0.00 | 0.00 | 0.00 | 86 | 1008.1 |
| 20260506150002 | 81 | 120 | 2.6 | 7.8 | 0.00 | 0.00 | 0.00 | 87 | 1008.1 |
| 20260506145902 | 81 | 152 | 2.6 | 7.8 | 0.00 | 0.00 | 0.00 | 87 | 1008.1 |
| 20260506145801 | 81 | 176 | 3.5 | 7.8 | 0.00 | 0.00 | 0.00 | 86 | 1008.1 |
| 20260506145701 | 81 | 162 | 4.3 | 7.8 | 0.00 | 0.00 | 0.00 | 87 | 1008.1 |
| 20260506145603 | 81 | 195 | 3.5 | 5.2 | 0.00 | 0.00 | 0.00 | 87 | 1008.0 |
| 20260506145503 | 81 | 142 | 2.6 | 5.2 | 0.00 | 0.00 | 0.00 | 87 | 1008.0 |
| 20260506145403 | 81 | 164 | 2.6 | 5.2 | 0.00 | 0.00 | 0.00 | 87 | 1008.0 |
| 20260506145305 | 81 | 171 | 2.6 | 5.2 | 0.00 | 0.00 | 0.00 | 87 | 1007.9 |
| 20260506145204 | 81 | 203 | 1.7 | 5.2 | 0.00 | 0.00 | 0.00 | 88 | 1008.0 |
| 20260506145103 | 80 | 116 | 2.6 | 5.2 | 0.00 | 0.00 | 0.00 | 87 | 1007.9 |
| 20260506145003 | 80 | 135 | 3.5 | 5.2 | 0.00 | 0.00 | 0.00 | 87 | 1007.9 |
| 20260506144902 | 81 | 107 | 2.6 | 5.2 | 0.00 | 0.00 | 0.00 | 87 | 1007.9 |
| 20260506144804 | 81 | 113 | 2.6 | 5.2 | 0.00 | 0.00 | 0.00 | 87 | 1007.8 |
| 20260506144702 | 81 | 103 | 1.7 | 7.8 | 0.00 | 0.00 | 0.00 | 87 | 1007.8 |
| 20260506144602 | 81 | 103 | 1.7 | 7.8 | 0.00 | 0.00 | 0.00 | 87 | 1007.9 |
| 20260506144503 | 81 | 127 | 0.9 | 7.8 | 0.00 | 0.00 | 0.00 | 88 | 1007.8 |
| 20260506144402 | 81 | 124 | 1.7 | 7.8 | 0.00 | 0.00 | 0.00 | 88 | 1007.7 |
| 20260506144303 | 81 | 111 | 1.7 | 7.8 | 0.00 | 0.00 | 0.00 | 88 | 1007.7 |
| 20260506144202 | 80 | 138 | 2.6 | 7.8 | 0.00 | 0.00 | 0.00 | 88 | 1007.8 |
| 20260506144103 | 80 | 127 | 1.7 | 7.8 | 0.00 | 0.00 | 0.00 | 88 | 1007.6 |
| 20260506144003 | 80 | 131 | 1.7 | 7.8 | 0.00 | 0.00 | 0.00 | 88 | 1007.6 |
| 20260506143902 | 80 | 118 | 3.5 | 7.8 | 0.00 | 0.00 | 0.00 | 88 | 1007.7 |
| 20260506143803 | 80 | 145 | 3.5 | 7.8 | 0.00 | 0.00 | 0.00 | 88 | 1007.6 |
| 20260506143702 | 80 | 147 | 1.7 | 6.1 | 0.00 | 0.00 | 0.00 | 88 | 1007.7 |
| 20260506143602 | 80 | 111 | 1.7 | 6.1 | 0.00 | 0.00 | 0.00 | 88 | 1007.7 |
| 20260506143504 | 80 | 130 | 2.6 | 6.1 | 0.00 | 0.00 | 0.00 | 88 | 1007.7 |
| 20260506143403 | 80 | 148 | 3.5 | 6.1 | 0.00 | 0.00 | 0.00 | 88 | 1007.7 |
| 20260506143302 | 80 | 107 | 1.7 | 6.1 | 0.00 | 0.00 | 0.00 | 88 | 1007.7 |
| 20260506143202 | 80 | 116 | 1.7 | 6.1 | 0.00 | 0.00 | 0.00 | 88 | 1007.7 |
| 20260506143104 | 80 | 103 | 3.5 | 7.8 | 0.00 | 0.00 | 0.00 | 88 | 1007.7 |
| 20260506143004 | 80 | 113 | 3.5 | 7.8 | 0.00 | 0.00 | 0.00 | 89 | 1007.7 |
| 20260506142903 | 80 | 141 | 0.9 | 7.8 | 0.00 | 0.00 | 0.00 | 90 | 1007.6 |
| 20260506142803 | 80 | 141 | 0.9 | 7.8 | 0.00 | 0.00 | 0.00 | 90 | 1007.7 |
| 20260506142703 | 80 | 141 | 0.9 | 7.8 | 0.00 | 0.00 | 0.00 | 90 | 1007.6 |
| 20260506142603 | 80 | 141 | 0.9 | 7.8 | 0.00 | 0.00 | 0.00 | 90 | 1007.6 |
| 20260506142503 | 80 | 141 | 0.9 | 7.8 | 0.00 | 0.00 | 0.00 | 90 | 1007.6 |
| 20260506142403 | 80 | 124 | 1.7 | 7.8 | 0.00 | 0.00 | 0.00 | 90 | 1007.6 |
| 20260506142305 | 79 | 140 | 3.5 | 7.8 | 0.00 | 0.00 | 0.00 | 90 | 1007.6 |
| 20260506142201 | 79 | 117 | 3.5 | 7.8 | 0.00 | 0.00 | 0.00 | 91 | 1007.7 |
| 20260506142103 | 79 | 86 | 2.6 | 4.3 | 0.00 | 0.00 | 0.00 | 91 | 1007.7 |
| 20260506142003 | 79 | 104 | 2.6 | 4.3 | 0.00 | 0.00 | 0.00 | 91 | 1007.8 |
| 20260506141904 | 79 | 104 | 2.6 | 4.3 | 0.00 | 0.00 | 0.00 | 91 | 1007.7 |
| 20260506141803 | 79 | 104 | 2.6 | 4.3 | 0.00 | 0.00 | 0.00 | 91 | 1007.7 |
| 20260506141638 | 79 | 118 | 1.7 | 4.3 | 0.00 | 0.00 | 0.00 | 91 | 1007.8 |
| 20260506141537 | 79 | 114 | 1.7 | 3.5 | 0.00 | 0.00 | 0.00 | 91 | 1007.7 |
| 20260506141436 | 79 | 114 | 1.7 | 3.5 | 0.00 | 0.00 | 0.00 | 91 | 1007.8 |
| 20260506141337 | 79 | 114 | 1.7 | 3.5 | 0.00 | 0.00 | 0.00 | 91 | 1007.8 |
| 20260506141237 | 79 | 90 | 2.6 | 3.5 | 0.00 | 0.00 | 0.00 | 91 | 1007.8 |
| 20260506141138 | 79 | 90 | 2.6 | 4.3 | 0.00 | 0.00 | 0.00 | 91 | 1007.8 |
| 20260506141037 | 79 | 87 | 2.6 | 4.3 | 0.00 | 0.00 | 0.00 | 91 | 1007.8 |
| 20260506140938 | 79 | 99 | 1.7 | 4.3 | 0.00 | 0.00 | 0.00 | 92 | 1007.8 |
| 20260506140837 | 79 | 162 | 2.6 | 4.3 | 0.00 | 0.00 | 0.00 | 92 | 1007.9 |
| 20260506140737 | 79 | 93 | 2.6 | 4.3 | 0.00 | 0.00 | 0.00 | 92 | 1007.8 |
| 20260506140638 | 78 | 125 | 1.7 | 4.3 | 0.00 | 0.00 | 0.00 | 92 | 1007.8 |
| 20260506140537 | 78 | 154 | 1.7 | 4.3 | 0.00 | 0.00 | 0.00 | 92 | 1007.9 |
| 20260506140436 | 78 | 134 | 1.7 | 4.3 | 0.00 | 0.00 | 0.00 | 92 | 1007.8 |
| 20260506140337 | 78 | 109 | 2.6 | 4.3 | 0.00 | 0.00 | 0.00 | 92 | 1007.9 |
| 20260506140237 | 78 | 114 | 2.6 | 4.3 | 0.00 | 0.00 | 0.00 | 92 | 1007.8 |
| 20260506140137 | 78 | 137 | 2.6 | 4.3 | 0.00 | 0.00 | 0.00 | 92 | 1007.8 |
| 20260506140038 | 78 | 104 | 2.6 | 4.3 | 0.00 | 0.00 | 0.00 | 92 | 1007.8 |
| 20260506135938 | 78 | 103 | 2.6 | 4.3 | 0.00 | 0.00 | 0.00 | 92 | 1007.8 |
| 20260506135837 | 78 | 104 | 2.6 | 4.3 | 0.00 | 0.00 | 0.00 | 92 | 1007.8 |
| 20260506135736 | 78 | 103 | 2.6 | 4.3 | 0.00 | 0.00 | 0.00 | 93 | 1007.8 |
| 20260506135636 | 78 | 83 | 3.5 | 4.3 | 0.00 | 0.00 | 0.00 | 92 | 1007.8 |
| 20260506135538 | 78 | 114 | 2.6 | 4.3 | 0.00 | 0.00 | 0.00 | 93 | 1007.8 |
| 20260506135437 | 78 | 102 | 2.6 | 4.3 | 0.00 | 0.00 | 0.00 | 93 | 1007.8 |
| 20260506135336 | 78 | 100 | 2.6 | 5.2 | 0.00 | 0.00 | 0.00 | 93 | 1007.9 |
| 20260506135238 | 78 | 100 | 1.7 | 5.2 | 0.00 | 0.00 | 0.00 | 93 | 1007.8 |
| 20260506135136 | 78 | 97 | 1.7 | 5.2 | 0.00 | 0.00 | 0.00 | 93 | 1007.8 |
| 20260506135036 | 78 | 104 | 2.6 | 5.2 | 0.00 | 0.00 | 0.00 | 93 | 1008.0 |
| 20260506134937 | 78 | 104 | 2.6 | 5.2 | 0.00 | 0.00 | 0.00 | 93 | 1008.0 |
| 20260506134836 | 78 | 109 | 2.6 | 5.2 | 0.00 | 0.00 | 0.00 | 93 | 1008.0 |
| 20260506134734 | 78 | 111 | 2.6 | 5.2 | 0.00 | 0.00 | 0.00 | 93 | 1007.9 |
| 20260506134633 | 78 | 113 | 2.6 | 5.2 | 0.00 | 0.00 | 0.00 | 93 | 1007.9 |
| 20260506134532 | 77 | 89 | 3.5 | 5.2 | 0.00 | 0.00 | 0.00 | 93 | 1007.9 |
| 20260506134431 | 77 | 110 | 3.5 | 5.2 | 0.00 | 0.00 | 0.00 | 93 | 1008.0 |
| 20260506134330 | 77 | 110 | 3.5 | 4.3 | 0.00 | 0.00 | 0.00 | 94 | 1007.9 |
| 20260506134233 | 77 | 87 | 3.5 | 4.3 | 0.00 | 0.00 | 0.00 | 94 | 1007.9 |
| 20260506134133 | 77 | 100 | 3.5 | 4.3 | 0.00 | 0.00 | 0.00 | 93 | 1007.8 |
| 20260506134030 | 77 | 125 | 3.5 | 4.3 | 0.00 | 0.00 | 0.00 | 94 | 1007.9 |
| 20260506133932 | 77 | 106 | 3.5 | 3.5 | 0.00 | 0.00 | 0.00 | 94 | 1007.9 |
| 20260506133833 | 77 | 103 | 1.7 | 3.5 | 0.00 | 0.00 | 0.00 | 94 | 1007.9 |
| 20260506133732 | 77 | 103 | 1.7 | 4.3 | 0.00 | 0.00 | 0.00 | 94 | 1007.9 |
| 20260506133632 | 77 | 103 | 1.7 | 4.3 | 0.00 | 0.00 | 0.00 | 94 | 1007.9 |
| 20260506133532 | 77 | 103 | 1.7 | 4.3 | 0.00 | 0.00 | 0.00 | 94 | 1008.0 |
| 20260506133431 | 77 | 103 | 1.7 | 4.3 | 0.00 | 0.00 | 0.00 | 94 | 1008.0 |
| 20260506133332 | 77 | 102 | 1.7 | 4.3 | 0.00 | 0.00 | 0.00 | 94 | 1008.0 |
| 20260506133232 | 77 | 103 | 1.7 | 4.3 | 0.00 | 0.00 | 0.00 | 94 | 1008.0 |
| 20260506133131 | 77 | 103 | 2.6 | 4.3 | 0.00 | 0.00 | 0.00 | 94 | 1008.0 |
| 20260506133032 | 77 | 116 | 2.6 | 4.3 | 0.00 | 0.00 | 0.00 | 94 | 1008.0 |
| 20260506132930 | 77 | 144 | 2.6 | 4.3 | 0.00 | 0.00 | 0.00 | 94 | 1008.0 |
| 20260506132833 | 77 | 137 | 3.5 | 4.3 | 0.00 | 0.00 | 0.00 | 94 | 1008.0 |
| 20260506132731 | 77 | 99 | 2.6 | 4.3 | 0.00 | 0.00 | 0.00 | 94 | 1008.1 |
| 20260506132632 | 77 | 125 | 2.6 | 4.3 | 0.00 | 0.00 | 0.00 | 94 | 1008.1 |
| 20260506132533 | 77 | 123 | 2.6 | 4.3 | 0.00 | 0.00 | 0.00 | 94 | 1008.1 |
| 20260506132434 | 77 | 96 | 1.7 | 3.5 | 0.00 | 0.00 | 0.00 | 94 | 1008.1 |
| 20260506132330 | 77 | 92 | 1.7 | 3.5 | 0.00 | 0.00 | 0.00 | 94 | 1008.2 |
| 20260506132231 | 77 | 120 | 0.9 | 3.5 | 0.00 | 0.00 | 0.00 | 94 | 1008.1 |
| 20260506132131 | 77 | 117 | 0.9 | 3.5 | 0.00 | 0.00 | 0.00 | 94 | 1008.1 |
| 20260506132031 | 77 | 117 | 1.7 | 3.5 | 0.00 | 0.00 | 0.00 | 94 | 1008.0 |
| 20260506131931 | 77 | 117 | 1.7 | 3.5 | 0.00 | 0.00 | 0.00 | 94 | 1008.1 |
| 20260506131832 | 77 | 113 | 1.7 | 3.5 | 0.00 | 0.00 | 0.00 | 94 | 1008.1 |
| 20260506131731 | 77 | 92 | 0.9 | 3.5 | 0.00 | 0.00 | 0.00 | 94 | 1008.1 |
| 20260506131632 | 77 | 92 | 1.7 | 4.3 | 0.00 | 0.00 | 0.00 | 94 | 1008.1 |
| 20260506131531 | 77 | 141 | 1.7 | 4.3 | 0.00 | 0.00 | 0.00 | 94 | 1008.1 |
| 20260506131431 | 77 | 106 | 1.7 | 4.3 | 0.00 | 0.00 | 0.00 | 94 | 1008.1 |
| 20260506131330 | 77 | 133 | 1.7 | 4.3 | 0.00 | 0.00 | 0.00 | 95 | 1008.1 |
| 20260506131231 | 77 | 103 | 1.7 | 4.3 | 0.00 | 0.00 | 0.00 | 94 | 1008.0 |
| 20260506131132 | 77 | 106 | 1.7 | 4.3 | 0.00 | 0.00 | 0.00 | 95 | 1008.1 |
| 20260506131032 | 77 | 130 | 1.7 | 4.3 | 0.00 | 0.00 | 0.00 | 95 | 1008.1 |
| 20260506130931 | 77 | 103 | 1.7 | 4.3 | 0.00 | 0.00 | 0.00 | 95 | 1008.0 |
| 20260506130831 | 77 | 99 | 1.7 | 4.3 | 0.00 | 0.00 | 0.00 | 95 | 1008.0 |
| 20260506130732 | 76 | 130 | 1.7 | 4.3 | 0.00 | 0.00 | 0.00 | 95 | 1008.1 |
| 20260506130632 | 76 | 124 | 1.7 | 3.5 | 0.00 | 0.00 | 0.00 | 95 | 1008.1 |
| 20260506130531 | 76 | 121 | 1.7 | 3.5 | 0.00 | 0.00 | 0.00 | 95 | 1008.0 |
| 20260506130431 | 76 | 137 | 1.7 | 3.5 | 0.00 | 0.00 | 0.00 | 95 | 1008.0 |
| 20260506130334 | 76 | 138 | 1.7 | 3.5 | 0.00 | 0.00 | 0.00 | 95 | 1008.1 |
| 20260506130233 | 76 | 111 | 1.7 | 3.5 | 0.00 | 0.00 | 0.00 | 95 | 1008.0 |
| 20260506130130 | 76 | 104 | 1.7 | 3.5 | 0.00 | 0.00 | 0.00 | 95 | 1008.0 |
| 20260506130028 | 76 | 128 | 0.9 | 3.5 | 0.00 | 0.00 | 0.00 | 95 | 1008.0 |
| 20260506125925 | 76 | 109 | 0.9 | 3.5 | 0.00 | 0.00 | 0.00 | 95 | 1007.9 |
| 20260506125822 | 76 | 109 | 1.7 | 3.5 | 0.00 | 0.00 | 0.00 | 95 | 1008.0 |
| 20260506125722 | 76 | 111 | 1.7 | 3.5 | 0.00 | 0.00 | 0.00 | 95 | 1008.0 |
| 20260506125620 | 76 | 113 | 1.7 | 3.5 | 0.00 | 0.00 | 0.00 | 95 | 1008.0 |
| 20260506125518 | 76 | 113 | 1.7 | 3.5 | 0.00 | 0.00 | 0.00 | 95 | 1008.0 |
| 20260506125418 | 76 | 110 | 1.7 | 3.5 | 0.00 | 0.00 | 0.00 | 95 | 1008.0 |
| 20260506125314 | 76 | 162 | 1.7 | 3.5 | 0.00 | 0.00 | 0.00 | 95 | 1008.0 |
| 20260506125213 | 76 | 134 | 0.9 | 3.5 | 0.00 | 0.00 | 0.00 | 95 | 1007.9 |